Wetterdaten: Freitag, 20.05.2022
Datum Zeit Temp. Aussen Temp. o. S. Temp +5cm Feuchte Auss Luftdruck Regen Sonnenschein Regendauer Solar Windben Empfang
20.05.2022 00:00 18,2 C 17,2 C 13,9 C 88 % 1021,8 hPa 0,0 l/m 0 min 0 min 0 W/m 3,2 km/h (1 Bft) 97,83 %
20.05.2022 00:02 18,2 C 17,2 C 13,9 C 88 % 1021,8 hPa 0,0 l/m 0 min 0 min 0 W/m 12,9 km/h (3 Bft) 92,31 %
20.05.2022 00:04 18,2 C 17,2 C 13,9 C 88 % 1021,9 hPa 0,0 l/m 0 min 0 min 0 W/m 6,4 km/h (2 Bft) 93,62 %
20.05.2022 00:07 18,0 C 16,7 C 13,3 C 88 % 1022,0 hPa 0,0 l/m 0 min 0 min 0 W/m 12,9 km/h (3 Bft) 95,89 %
20.05.2022 00:08 18,0 C 17,2 C 13,3 C 88 % 1022,0 hPa 0,0 l/m 0 min 0 min 0 W/m 6,4 km/h (2 Bft) 100,00 %
20.05.2022 00:10 17,9 C 16,7 C 13,3 C 88 % 1022,0 hPa 0,0 l/m 0 min 0 min 0 W/m 12,9 km/h (3 Bft) 95,65 %
20.05.2022 00:12 17,8 C 16,7 C 13,3 C 88 % 1022,0 hPa 0,0 l/m 0 min 0 min 0 W/m 9,7 km/h (2 Bft) 93,62 %
20.05.2022 00:14 17,8 C 16,7 C 13,3 C 88 % 1022,0 hPa 0,0 l/m 0 min 0 min 0 W/m 12,9 km/h (3 Bft) 93,62 %
20.05.2022 00:16 17,7 C 16,7 C 13,3 C 87 % 1022,0 hPa 0,0 l/m 0 min 0 min 0 W/m 12,9 km/h (3 Bft) 91,49 %
20.05.2022 00:18 17,7 C 16,7 C 13,3 C 87 % 1022,1 hPa 0,0 l/m 0 min 0 min 0 W/m 9,7 km/h (2 Bft) 93,62 %
20.05.2022 00:20 17,6 C 16,7 C 13,3 C 87 % 1022,0 hPa 0,0 l/m 0 min 0 min 0 W/m 16,1 km/h (3 Bft) 93,62 %
20.05.2022 00:22 17,6 C 16,7 C 13,3 C 87 % 1022,0 hPa 0,0 l/m 0 min 0 min 0 W/m 12,9 km/h (3 Bft) 95,65 %
20.05.2022 00:24 17,5 C 16,7 C 13,3 C 87 % 1022,0 hPa 0,0 l/m 0 min 0 min 0 W/m 19,3 km/h (3 Bft) 95,74 %
20.05.2022 00:26 17,4 C 16,7 C 13,3 C 87 % 1022,1 hPa 0,0 l/m 0 min 0 min 0 W/m 16,1 km/h (3 Bft) 95,74 %
20.05.2022 00:28 17,4 C 16,7 C 13,3 C 87 % 1022,1 hPa 0,0 l/m 0 min 0 min 0 W/m 16,1 km/h (3 Bft) 93,62 %
20.05.2022 00:30 17,4 C 16,7 C 13,3 C 87 % 1022,1 hPa 0,0 l/m 0 min 0 min 0 W/m 16,1 km/h (3 Bft) 97,87 %
20.05.2022 00:32 17,3 C 16,7 C 13,3 C 87 % 1022,1 hPa 0,0 l/m 0 min 0 min 0 W/m 9,7 km/h (2 Bft) 95,74 %
20.05.2022 00:34 17,3 C 16,7 C 13,3 C 87 % 1022,1 hPa 0,0 l/m 0 min 0 min 0 W/m 12,9 km/h (3 Bft) 93,48 %
20.05.2022 00:36 17,3 C 16,7 C 13,3 C 87 % 1022,0 hPa 0,0 l/m 0 min 0 min 0 W/m 6,4 km/h (2 Bft) 93,62 %
20.05.2022 00:38 17,2 C 16,7 C 13,3 C 87 % 1022,1 hPa 0,0 l/m 0 min 0 min 0 W/m 9,7 km/h (2 Bft) 93,62 %
20.05.2022 00:40 17,2 C 16,7 C 13,3 C 87 % 1022,1 hPa 0,0 l/m 0 min 0 min 0 W/m 12,9 km/h (3 Bft) 95,74 %
20.05.2022 00:42 17,2 C 16,7 C 13,3 C 87 % 1022,1 hPa 0,0 l/m 0 min 0 min 0 W/m 9,7 km/h (2 Bft) 93,62 %
20.05.2022 00:44 17,2 C 16,7 C 12,8 C 87 % 1022,0 hPa 0,0 l/m 0 min 0 min 0 W/m 9,7 km/h (2 Bft) 93,62 %
20.05.2022 00:46 17,2 C 16,7 C 13,3 C 87 % 1022,1 hPa 0,0 l/m 0 min 0 min 0 W/m 9,7 km/h (2 Bft) 95,65 %
20.05.2022 00:48 17,1 C 16,1 C 12,8 C 87 % 1022,1 hPa 0,0 l/m 0 min 0 min 0 W/m 9,7 km/h (2 Bft) 95,74 %
20.05.2022 00:50 17,1 C 16,1 C 12,8 C 87 % 1022,0 hPa 0,0 l/m 0 min 0 min 0 W/m 6,4 km/h (2 Bft) 95,74 %
20.05.2022 00:52 17,1 C 16,1 C 12,8 C 87 % 1022,1 hPa 0,0 l/m 0 min 0 min 0 W/m 9,7 km/h (2 Bft) 93,62 %
20.05.2022 00:54 17,1 C 16,1 C 12,8 C 87 % 1022,1 hPa 0,0 l/m 0 min 0 min 0 W/m 16,1 km/h (3 Bft) 97,87 %
20.05.2022 00:56 17,1 C 16,1 C 12,8 C 87 % 1022,1 hPa 0,0 l/m 0 min 0 min 0 W/m 12,9 km/h (3 Bft) 97,87 %
20.05.2022 00:58 17,1 C 16,1 C 12,8 C 87 % 1022,1 hPa 0,0 l/m 0 min 0 min 0 W/m 9,7 km/h (2 Bft) 97,83 %
20.05.2022 01:00 17,0 C 16,1 C 12,8 C 87 % 1022,2 hPa 0,0 l/m 0 min 0 min 0 W/m 6,4 km/h (2 Bft) 97,87 %
20.05.2022 01:02 17,0 C 16,1 C 12,8 C 87 % 1022,2 hPa 0,0 l/m 0 min 0 min 0 W/m 6,4 km/h (2 Bft) 95,74 %
20.05.2022 01:04 17,0 C 16,1 C 12,8 C 87 % 1022,2 hPa 0,0 l/m 0 min 0 min 0 W/m 6,4 km/h (2 Bft) 100,00 %
20.05.2022 01:06 17,0 C 16,1 C 12,8 C 87 % 1022,1 hPa 0,0 l/m 0 min 0 min 0 W/m 6,4 km/h (2 Bft) 100,00 %
20.05.2022 01:08 16,9 C 16,1 C 12,8 C 87 % 1022,1 hPa 0,0 l/m 0 min 0 min 0 W/m 6,4 km/h (2 Bft) 100,00 %
20.05.2022 01:10 16,9 C 16,1 C 12,8 C 88 % 1022,1 hPa 0,0 l/m 0 min 0 min 0 W/m 9,7 km/h (2 Bft) 100,00 %
20.05.2022 01:12 16,9 C 16,1 C 12,8 C 88 % 1022,1 hPa 0,0 l/m 0 min 0 min 0 W/m 9,7 km/h (2 Bft) 100,00 %
20.05.2022 01:14 16,9 C 16,1 C 12,8 C 88 % 1022,1 hPa 0,0 l/m 0 min 0 min 0 W/m 3,2 km/h (1 Bft) 100,00 %
20.05.2022 01:16 16,9 C 16,1 C 12,8 C 88 % 1022,1 hPa 0,0 l/m 0 min 0 min 0 W/m 3,2 km/h (1 Bft) 100,00 %
20.05.2022 01:18 17,0 C 16,1 C 12,8 C 88 % 1022,1 hPa 0,0 l/m 0 min 0 min 0 W/m 3,2 km/h (1 Bft) 97,87 %
20.05.2022 01:20 17,0 C 16,1 C 12,8 C 88 % 1022,1 hPa 0,0 l/m 0 min 0 min 0 W/m 6,4 km/h (2 Bft) 97,87 %
20.05.2022 01:22 16,9 C 16,1 C 12,8 C 88 % 1022,1 hPa 0,0 l/m 0 min 0 min 0 W/m 6,4 km/h (2 Bft) 100,00 %
20.05.2022 01:24 16,9 C 16,1 C 12,8 C 88 % 1022,0 hPa 0,0 l/m 0 min 0 min 0 W/m 6,4 km/h (2 Bft) 100,00 %
20.05.2022 01:26 16,9 C 16,1 C 12,8 C 88 % 1022,1 hPa 0,0 l/m 0 min 0 min 0 W/m 3,2 km/h (1 Bft) 100,00 %
20.05.2022 01:28 16,9 C 16,1 C 12,8 C 88 % 1022,1 hPa 0,0 l/m 0 min 0 min 0 W/m 6,4 km/h (2 Bft) 97,87 %
20.05.2022 01:30 16,9 C 16,1 C 12,8 C 88 % 1022,1 hPa 0,0 l/m 0 min 0 min 0 W/m 3,2 km/h (1 Bft) 100,00 %
20.05.2022 01:32 16,9 C 16,1 C 12,8 C 88 % 1022,1 hPa 0,0 l/m 0 min 0 min 0 W/m 3,2 km/h (1 Bft) 100,00 %
20.05.2022 01:34 16,9 C 16,1 C 12,8 C 88 % 1022,1 hPa 0,0 l/m 0 min 0 min 0 W/m 3,2 km/h (1 Bft) 100,00 %
20.05.2022 01:36 16,9 C 16,1 C 12,8 C 88 % 1022,1 hPa 0,0 l/m 0 min 0 min 0 W/m 0,0 km/h (0 Bft) 95,74 %
20.05.2022 01:38 16,9 C 16,1 C 12,8 C 88 % 1022,1 hPa 0,0 l/m 0 min 0 min 0 W/m 0,0 km/h (0 Bft) 97,87 %
20.05.2022 01:40 16,8 C 16,1 C 12,8 C 88 % 1022,0 hPa 0,0 l/m 0 min 0 min 0 W/m 3,2 km/h (1 Bft) 97,87 %
20.05.2022 01:42 16,8 C 15,6 C 12,2 C 89 % 1022,0 hPa 0,0 l/m 0 min 0 min 0 W/m 3,2 km/h (1 Bft) 97,87 %
20.05.2022 01:44 16,8 C 15,6 C 12,2 C 89 % 1022,0 hPa 0,0 l/m 0 min 0 min 0 W/m 6,4 km/h (2 Bft) 95,74 %
20.05.2022 01:46 16,8 C 15,6 C 12,2 C 89 % 1022,0 hPa 0,0 l/m 0 min 0 min 0 W/m 3,2 km/h (1 Bft) 97,83 %
20.05.2022 01:48 16,7 C 15,6 C 12,2 C 89 % 1022,0 hPa 0,0 l/m 0 min 0 min 0 W/m 3,2 km/h (1 Bft) 97,87 %
20.05.2022 01:50 16,7 C 15,6 C 12,8 C 89 % 1022,0 hPa 0,0 l/m 0 min 0 min 0 W/m 3,2 km/h (1 Bft) 97,87 %
20.05.2022 01:52 16,7 C 15,6 C 12,2 C 89 % 1022,0 hPa 0,0 l/m 0 min 0 min 0 W/m 6,4 km/h (2 Bft) 97,87 %
20.05.2022 01:54 16,7 C 15,6 C 12,2 C 89 % 1022,0 hPa 0,0 l/m 0 min 0 min 0 W/m 3,2 km/h (1 Bft) 97,87 %
20.05.2022 01:56 16,6 C 15,6 C 12,2 C 89 % 1022,0 hPa 0,0 l/m 0 min 0 min 0 W/m 9,7 km/h (2 Bft) 97,87 %
20.05.2022 01:58 16,6 C 15,6 C 12,2 C 89 % 1022,0 hPa 0,0 l/m 0 min 0 min 0 W/m 6,4 km/h (2 Bft) 95,65 %
20.05.2022 02:00 16,6 C 15,6 C 12,2 C 89 % 1022,1 hPa 0,0 l/m 0 min 0 min 0 W/m 3,2 km/h (1 Bft) 97,87 %
20.05.2022 02:02 16,5 C 15,6 C 12,2 C 89 % 1022,0 hPa 0,0 l/m 0 min 0 min 0 W/m 9,7 km/h (2 Bft) 95,74 %
20.05.2022 02:04 16,4 C 15,6 C 12,2 C 89 % 1022,0 hPa 0,0 l/m 0 min 0 min 0 W/m 6,4 km/h (2 Bft) 97,87 %
20.05.2022 02:06 16,4 C 15,6 C 12,2 C 89 % 1022,0 hPa 0,0 l/m 0 min 0 min 0 W/m 3,2 km/h (1 Bft) 95,74 %
20.05.2022 02:08 16,4 C 15,6 C 12,2 C 89 % 1022,0 hPa 0,0 l/m 0 min 0 min 0 W/m 3,2 km/h (1 Bft) 95,74 %
20.05.2022 02:10 16,3 C 15,0 C 12,2 C 89 % 1022,1 hPa 0,0 l/m 0 min 0 min 0 W/m 0,0 km/h (0 Bft) 97,83 %
20.05.2022 02:12 16,3 C 15,0 C 12,2 C 89 % 1022,0 hPa 0,0 l/m 0 min 0 min 0 W/m 9,7 km/h (2 Bft) 97,87 %
20.05.2022 02:14 16,3 C 15,0 C 11,7 C 89 % 1022,0 hPa 0,0 l/m 0 min 0 min 0 W/m 6,4 km/h (2 Bft) 100,00 %
20.05.2022 02:16 16,2 C 15,0 C 11,7 C 90 % 1022,0 hPa 0,0 l/m 0 min 0 min 0 W/m 12,9 km/h (3 Bft) 95,74 %
20.05.2022 02:18 16,2 C 15,0 C 12,2 C 89 % 1022,0 hPa 0,0 l/m 0 min 0 min 0 W/m 6,4 km/h (2 Bft) 100,00 %
20.05.2022 02:20 16,2 C 15,0 C 11,7 C 90 % 1022,0 hPa 0,0 l/m 0 min 0 min 0 W/m 3,2 km/h (1 Bft) 100,00 %
20.05.2022 02:22 16,1 C 15,0 C 11,7 C 90 % 1022,0 hPa 0,0 l/m 0 min 0 min 0 W/m 3,2 km/h (1 Bft) 97,87 %
20.05.2022 02:24 16,1 C 15,0 C 11,7 C 90 % 1021,9 hPa 0,0 l/m 0 min 0 min 0 W/m 3,2 km/h (1 Bft) 100,00 %
20.05.2022 02:26 16,1 C 15,0 C 11,7 C 90 % 1022,0 hPa 0,0 l/m 0 min 0 min 0 W/m 6,4 km/h (2 Bft) 97,87 %
20.05.2022 02:28 16,0 C 15,0 C 11,7 C 90 % 1022,0 hPa 0,0 l/m 0 min 0 min 0 W/m 3,2 km/h (1 Bft) 100,00 %
20.05.2022 02:30 16,0 C 15,0 C 11,7 C 90 % 1021,9 hPa 0,0 l/m 0 min 0 min 0 W/m 3,2 km/h (1 Bft) 100,00 %
20.05.2022 02:32 16,0 C 15,0 C 11,7 C 90 % 1022,0 hPa 0,0 l/m 0 min 0 min 0 W/m 6,4 km/h (2 Bft) 100,00 %
20.05.2022 02:34 15,9 C 15,0 C 11,7 C 90 % 1022,0 hPa 0,0 l/m 0 min 0 min 0 W/m 3,2 km/h (1 Bft) 100,00 %
20.05.2022 02:36 15,9 C 15,0 C 11,7 C 90 % 1022,1 hPa 0,0 l/m 0 min 0 min 0 W/m 0,0 km/h (0 Bft) 100,00 %
20.05.2022 02:38 15,9 C 15,0 C 11,7 C 90 % 1022,1 hPa 0,0 l/m 0 min 0 min 0 W/m 0,0 km/h (0 Bft) 100,00 %
20.05.2022 02:40 15,8 C 15,0 C 11,7 C 90 % 1022,1 hPa 0,0 l/m 0 min 0 min 0 W/m 0,0 km/h (0 Bft) 100,00 %
20.05.2022 02:42 15,8 C 15,0 C 11,7 C 90 % 1022,1 hPa 0,0 l/m 0 min 0 min 0 W/m 3,2 km/h (1 Bft) 100,00 %
20.05.2022 02:44 15,8 C 15,0 C 11,7 C 90 % 1022,1 hPa 0,0 l/m 0 min 0 min 0 W/m 0,0 km/h (0 Bft) 100,00 %
20.05.2022 02:46 15,8 C 14,4 C 11,7 C 90 % 1022,2 hPa 0,0 l/m 0 min 0 min 0 W/m 3,2 km/h (1 Bft) 100,00 %
20.05.2022 02:48 15,8 C 14,4 C 11,7 C 90 % 1022,2 hPa 0,0 l/m 0 min 0 min 0 W/m 3,2 km/h (1 Bft) 100,00 %
20.05.2022 02:50 15,7 C 14,4 C 11,7 C 90 % 1022,2 hPa 0,0 l/m 0 min 0 min 0 W/m 3,2 km/h (1 Bft) 97,87 %
20.05.2022 02:52 15,7 C 14,4 C 11,7 C 90 % 1022,2 hPa 0,0 l/m 0 min 0 min 0 W/m 3,2 km/h (1 Bft) 97,87 %
20.05.2022 02:54 15,7 C 14,4 C 11,7 C 90 % 1022,2 hPa 0,0 l/m 0 min 0 min 0 W/m 0,0 km/h (0 Bft) 100,00 %
20.05.2022 02:56 15,7 C 14,4 C 11,7 C 90 % 1022,2 hPa 0,0 l/m 0 min 0 min 0 W/m 0,0 km/h (0 Bft) 100,00 %
20.05.2022 02:58 15,6 C 14,4 C 11,7 C 91 % 1022,2 hPa 0,0 l/m 0 min 0 min 0 W/m 0,0 km/h (0 Bft) 97,87 %
20.05.2022 03:00 15,6 C 14,4 C 11,7 C 91 % 1022,2 hPa 0,0 l/m 0 min 0 min 0 W/m 0,0 km/h (0 Bft) 95,12 %
20.05.2022 03:02 15,6 C 14,4 C 11,7 C 91 % 1022,2 hPa 0,0 l/m 0 min 0 min 0 W/m 0,0 km/h (0 Bft) 97,87 %
20.05.2022 03:04 15,6 C 14,4 C 11,1 C 90 % 1022,2 hPa 0,0 l/m 0 min 0 min 0 W/m 0,0 km/h (0 Bft) 95,74 %
20.05.2022 03:06 15,6 C 14,4 C 11,7 C 90 % 1022,3 hPa 0,0 l/m 0 min 0 min 0 W/m 0,0 km/h (0 Bft) 97,87 %
20.05.2022 03:08 15,6 C 14,4 C 11,7 C 91 % 1022,3 hPa 0,0 l/m 0 min 0 min 0 W/m 0,0 km/h (0 Bft) 97,87 %
20.05.2022 03:10 15,6 C 14,4 C 11,7 C 91 % 1022,3 hPa 0,0 l/m 0 min 0 min 0 W/m 0,0 km/h (0 Bft) 97,87 %
20.05.2022 03:12 15,6 C 14,4 C 11,7 C 91 % 1022,3 hPa 0,0 l/m 0 min 0 min 0 W/m 3,2 km/h (1 Bft) 89,13 %
20.05.2022 03:14 15,6 C 14,4 C 11,7 C 91 % 1022,2 hPa 0,0 l/m 0 min 0 min 0 W/m 0,0 km/h (0 Bft) 95,74 %
20.05.2022 03:16 15,6 C 15,0 C 11,7 C 91 % 1022,3 hPa 0,0 l/m 0 min 0 min 0 W/m 0,0 km/h (0 Bft) 95,74 %
20.05.2022 03:18 15,6 C 15,0 C 11,7 C 91 % 1022,2 hPa 0,0 l/m 0 min 0 min 0 W/m 0,0 km/h (0 Bft) 95,74 %
20.05.2022 03:20 15,6 C 15,0 C 11,7 C 91 % 1022,1 hPa 0,0 l/m 0 min 0 min 0 W/m 0,0 km/h (0 Bft) 95,74 %
20.05.2022 03:22 15,6 C 15,0 C 11,7 C 91 % 1022,1 hPa 0,0 l/m 0 min 0 min 0 W/m 0,0 km/h (0 Bft) 95,74 %
20.05.2022 03:24 15,6 C 15,0 C 11,7 C 91 % 1022,1 hPa 0,0 l/m 0 min 0 min 0 W/m 0,0 km/h (0 Bft) 95,65 %
20.05.2022 03:26 15,6 C 15,0 C 11,7 C 91 % 1022,1 hPa 0,0 l/m 0 min 0 min 0 W/m 0,0 km/h (0 Bft) 93,62 %
20.05.2022 03:28 15,6 C 15,0 C 11,7 C 91 % 1022,1 hPa 0,0 l/m 0 min 0 min 0 W/m 0,0 km/h (0 Bft) 91,49 %
20.05.2022 03:30 15,6 C 15,0 C 11,7 C 91 % 1022,1 hPa 0,0 l/m 0 min 0 min 0 W/m 0,0 km/h (0 Bft) 91,49 %
20.05.2022 03:32 15,6 C 15,0 C 11,7 C 91 % 1022,1 hPa 0,0 l/m 0 min 0 min 0 W/m 0,0 km/h (0 Bft) 93,62 %
20.05.2022 03:34 15,6 C 15,0 C 11,7 C 91 % 1022,0 hPa 0,0 l/m 0 min 0 min 0 W/m 0,0 km/h (0 Bft) 91,49 %
20.05.2022 03:36 15,6 C 15,0 C 11,7 C 92 % 1022,0 hPa 0,0 l/m 0 min 0 min 0 W/m 0,0 km/h (0 Bft) 94,83 %
20.05.2022 03:38 15,6 C 15,0 C 11,7 C 92 % 1022,1 hPa 0,0 l/m 0 min 0 min 0 W/m 0,0 km/h (0 Bft) 91,43 %
20.05.2022 03:40 15,6 C 15,0 C 11,7 C 92 % 1022,0 hPa 0,0 l/m 0 min 0 min 0 W/m 0,0 km/h (0 Bft) 93,62 %
20.05.2022 03:42 15,6 C 15,0 C 11,7 C 92 % 1021,9 hPa 0,0 l/m 0 min 0 min 0 W/m 3,2 km/h (1 Bft) 93,62 %
20.05.2022 03:44 15,6 C 15,0 C 11,7 C 92 % 1021,9 hPa 0,0 l/m 0 min 0 min 0 W/m 0,0 km/h (0 Bft) 95,74 %
20.05.2022 03:46 15,6 C 15,0 C 11,7 C 91 % 1021,9 hPa 0,0 l/m 0 min 0 min 0 W/m 0,0 km/h (0 Bft) 93,62 %
20.05.2022 03:48 15,6 C 15,0 C 11,7 C 91 % 1021,9 hPa 0,0 l/m 0 min 0 min 0 W/m 0,0 km/h (0 Bft) 95,65 %
20.05.2022 03:50 15,6 C 15,0 C 11,7 C 91 % 1021,9 hPa 0,0 l/m 0 min 0 min 0 W/m 0,0 km/h (0 Bft) 95,74 %
20.05.2022 03:52 15,6 C 14,4 C 11,7 C 91 % 1021,9 hPa 0,0 l/m 0 min 0 min 0 W/m 0,0 km/h (0 Bft) 93,62 %
20.05.2022 03:54 15,6 C 14,4 C 11,7 C 91 % 1021,9 hPa 0,0 l/m 0 min 0 min 0 W/m 0,0 km/h (0 Bft) 95,74 %
20.05.2022 03:56 15,6 C 14,4 C 11,7 C 91 % 1021,9 hPa 0,0 l/m 0 min 0 min 0 W/m 0,0 km/h (0 Bft) 100,00 %
20.05.2022 03:58 15,6 C 14,4 C 11,7 C 91 % 1021,9 hPa 0,0 l/m 0 min 0 min 0 W/m 0,0 km/h (0 Bft) 97,87 %
20.05.2022 04:00 15,6 C 14,4 C 11,7 C 91 % 1021,8 hPa 0,0 l/m 0 min 0 min 0 W/m 0,0 km/h (0 Bft) 97,83 %
20.05.2022 04:06 15,6 C 14,4 C 11,7 C 91 % 1021,6 hPa 0,0 l/m 0 min 0 min 0 W/m 0,0 km/h (0 Bft) 95,00 %
20.05.2022 04:08 15,6 C 14,4 C 11,1 C 91 % 1021,7 hPa 0,0 l/m 0 min 0 min 0 W/m 0,0 km/h (0 Bft) 100,00 %
20.05.2022 04:10 15,6 C 14,4 C 11,1 C 91 % 1021,6 hPa 0,0 l/m 0 min 0 min 0 W/m 0,0 km/h (0 Bft) 97,87 %
20.05.2022 04:12 15,5 C 13,9 C 11,1 C 91 % 1021,6 hPa 0,0 l/m 0 min 0 min 0 W/m 0,0 km/h (0 Bft) 100,00 %
20.05.2022 04:14 15,5 C 13,9 C 11,1 C 91 % 1021,5 hPa 0,0 l/m 0 min 0 min 0 W/m 0,0 km/h (0 Bft) 97,87 %
20.05.2022 04:16 15,5 C 13,9 C 11,1 C 91 % 1021,5 hPa 0,0 l/m 0 min 0 min 0 W/m 0,0 km/h (0 Bft) 97,87 %
20.05.2022 04:18 15,4 C 13,9 C 11,1 C 91 % 1021,5 hPa 0,0 l/m 0 min 0 min 0 W/m 0,0 km/h (0 Bft) 100,00 %
20.05.2022 04:20 15,4 C 13,9 C 11,1 C 91 % 1021,5 hPa 0,0 l/m 0 min 0 min 0 W/m 0,0 km/h (0 Bft) 100,00 %
20.05.2022 04:22 15,4 C 13,9 C 11,1 C 91 % 1021,5 hPa 0,0 l/m 0 min 0 min 0 W/m 0,0 km/h (0 Bft) 97,87 %
20.05.2022 04:24 15,3 C 13,9 C 11,1 C 91 % 1021,5 hPa 0,0 l/m 0 min 0 min 0 W/m 0,0 km/h (0 Bft) 100,00 %
20.05.2022 04:26 15,3 C 13,9 C 10,6 C 91 % 1021,6 hPa 0,0 l/m 0 min 0 min 0 W/m 0,0 km/h (0 Bft) 97,87 %
20.05.2022 04:28 15,3 C 13,9 C 11,1 C 91 % 1021,5 hPa 0,0 l/m 0 min 0 min 0 W/m 0,0 km/h (0 Bft) 97,87 %
20.05.2022 04:30 15,3 C 13,9 C 10,6 C 91 % 1021,5 hPa 0,0 l/m 0 min 0 min 0 W/m 0,0 km/h (0 Bft) 97,87 %
20.05.2022 04:32 15,2 C 13,9 C 10,6 C 91 % 1021,5 hPa 0,0 l/m 0 min 0 min 0 W/m 0,0 km/h (0 Bft) 100,00 %
20.05.2022 04:34 15,2 C 13,9 C 10,6 C 91 % 1021,6 hPa 0,0 l/m 0 min 0 min 0 W/m 0,0 km/h (0 Bft) 97,87 %
20.05.2022 04:36 15,2 C 13,9 C 10,6 C 91 % 1021,7 hPa 0,0 l/m 0 min 0 min 0 W/m 0,0 km/h (0 Bft) 98,28 %
20.05.2022 04:38 15,2 C 13,9 C 10,6 C 91 % 1021,6 hPa 0,0 l/m 0 min 0 min 0 W/m 0,0 km/h (0 Bft) 100,00 %
20.05.2022 04:40 15,1 C 13,9 C 10,6 C 91 % 1021,6 hPa 0,0 l/m 0 min 0 min 0 W/m 0,0 km/h (0 Bft) 100,00 %
20.05.2022 04:42 15,1 C 13,9 C 10,6 C 91 % 1021,6 hPa 0,0 l/m 0 min 0 min 0 W/m 0,0 km/h (0 Bft) 100,00 %
20.05.2022 04:44 15,1 C 13,9 C 10,6 C 92 % 1021,6 hPa 0,0 l/m 0 min 0 min 0 W/m 0,0 km/h (0 Bft) 100,00 %
20.05.2022 04:46 15,1 C 13,9 C 10,6 C 92 % 1021,6 hPa 0,0 l/m 0 min 0 min 0 W/m 0,0 km/h (0 Bft) 100,00 %
20.05.2022 04:48 15,1 C 13,9 C 11,1 C 92 % 1021,6 hPa 0,0 l/m 0 min 0 min 0 W/m 0,0 km/h (0 Bft) 100,00 %
20.05.2022 04:50 15,1 C 13,9 C 11,1 C 92 % 1021,6 hPa 0,0 l/m 0 min 0 min 0 W/m 0,0 km/h (0 Bft) 97,87 %
20.05.2022 04:52 15,1 C 13,9 C 11,1 C 92 % 1021,6 hPa 0,0 l/m 0 min 0 min 0 W/m 0,0 km/h (0 Bft) 97,87 %
20.05.2022 04:54 15,0 C 13,9 C 11,1 C 92 % 1021,6 hPa 0,0 l/m 0 min 0 min 0 W/m 0,0 km/h (0 Bft) 100,00 %
20.05.2022 04:56 15,0 C 13,9 C 11,1 C 92 % 1021,5 hPa 0,0 l/m 0 min 0 min 0 W/m 0,0 km/h (0 Bft) 100,00 %
20.05.2022 04:58 15,1 C 13,9 C 11,1 C 92 % 1021,5 hPa 0,0 l/m 0 min 0 min 0 W/m 0,0 km/h (0 Bft) 100,00 %
20.05.2022 05:00 15,1 C 13,9 C 11,1 C 92 % 1021,5 hPa 0,0 l/m 0 min 0 min 0 W/m 0,0 km/h (0 Bft) 100,00 %
20.05.2022 05:02 15,1 C 13,9 C 11,1 C 93 % 1021,5 hPa 0,0 l/m 0 min 0 min 0 W/m 0,0 km/h (0 Bft) 97,87 %
20.05.2022 05:04 15,1 C 13,9 C 11,1 C 93 % 1021,4 hPa 0,0 l/m 0 min 0 min 0 W/m 0,0 km/h (0 Bft) 95,74 %
20.05.2022 05:06 15,1 C 14,4 C 11,1 C 93 % 1021,4 hPa 0,0 l/m 0 min 0 min 0 W/m 0,0 km/h (0 Bft) 100,00 %
20.05.2022 05:08 15,1 C 14,4 C 11,1 C 93 % 1021,4 hPa 0,0 l/m 0 min 0 min 0 W/m 0,0 km/h (0 Bft) 100,00 %
20.05.2022 05:10 15,1 C 14,4 C 11,1 C 93 % 1021,4 hPa 0,0 l/m 0 min 0 min 0 W/m 0,0 km/h (0 Bft) 97,87 %
20.05.2022 05:12 15,1 C 13,9 C 11,1 C 93 % 1021,5 hPa 0,0 l/m 0 min 0 min 0 W/m 0,0 km/h (0 Bft) 97,83 %
20.05.2022 05:14 15,1 C 13,9 C 11,1 C 93 % 1021,5 hPa 0,0 l/m 0 min 0 min 0 W/m 0,0 km/h (0 Bft) 97,87 %
20.05.2022 05:16 15,1 C 13,9 C 11,1 C 93 % 1021,5 hPa 0,0 l/m 0 min 0 min 0 W/m 0,0 km/h (0 Bft) 93,62 %
20.05.2022 05:18 15,0 C 13,9 C 11,1 C 93 % 1021,6 hPa 0,0 l/m 0 min 0 min 0 W/m 0,0 km/h (0 Bft) 97,87 %
20.05.2022 05:20 15,0 C 13,9 C 11,1 C 93 % 1021,6 hPa 0,0 l/m 0 min 0 min 0 W/m 0,0 km/h (0 Bft) 97,87 %
20.05.2022 05:22 15,0 C 13,9 C 11,1 C 93 % 1021,7 hPa 0,0 l/m 0 min 0 min 0 W/m 0,0 km/h (0 Bft) 97,87 %
20.05.2022 05:24 15,0 C 14,4 C 11,1 C 93 % 1021,6 hPa 0,0 l/m 0 min 0 min 0 W/m 0,0 km/h (0 Bft) 97,83 %
20.05.2022 05:26 15,0 C 13,9 C 11,1 C 93 % 1021,6 hPa 0,0 l/m 0 min 0 min 0 W/m 0,0 km/h (0 Bft) 95,74 %
20.05.2022 05:28 15,0 C 13,9 C 11,1 C 93 % 1021,5 hPa 0,0 l/m 0 min 0 min 0 W/m 0,0 km/h (0 Bft) 97,87 %
20.05.2022 05:30 15,0 C 13,9 C 11,1 C 93 % 1021,5 hPa 0,0 l/m 0 min 0 min 0 W/m 0,0 km/h (0 Bft) 95,74 %
20.05.2022 05:32 15,0 C 13,9 C 11,1 C 93 % 1021,5 hPa 0,0 l/m 0 min 0 min 4 W/m 0,0 km/h (0 Bft) 95,74 %
20.05.2022 05:34 15,0 C 13,9 C 11,1 C 93 % 1021,5 hPa 0,0 l/m 0 min 0 min 5 W/m 0,0 km/h (0 Bft) 95,65 %
20.05.2022 05:36 14,9 C 13,9 C 11,1 C 93 % 1021,4 hPa 0,0 l/m 0 min 0 min 5 W/m 0,0 km/h (0 Bft) 97,87 %
20.05.2022 05:38 15,0 C 13,9 C 11,1 C 93 % 1021,3 hPa 0,0 l/m 0 min 0 min 5 W/m 0,0 km/h (0 Bft) 95,74 %
20.05.2022 05:40 14,9 C 13,9 C 11,1 C 93 % 1021,3 hPa 0,0 l/m 0 min 0 min 5 W/m 0,0 km/h (0 Bft) 97,87 %
20.05.2022 05:42 14,9 C 13,9 C 11,1 C 93 % 1021,3 hPa 0,0 l/m 0 min 0 min 6 W/m 0,0 km/h (0 Bft) 95,74 %
20.05.2022 05:44 14,9 C 13,9 C 11,1 C 93 % 1021,3 hPa 0,0 l/m 0 min 0 min 7 W/m 0,0 km/h (0 Bft) 97,87 %
20.05.2022 05:46 14,9 C 13,9 C 10,6 C 93 % 1021,3 hPa 0,0 l/m 0 min 0 min 8 W/m 0,0 km/h (0 Bft) 97,87 %
20.05.2022 05:48 14,9 C 13,9 C 10,6 C 93 % 1021,3 hPa 0,0 l/m 0 min 0 min 10 W/m 0,0 km/h (0 Bft) 97,83 %
20.05.2022 05:50 14,9 C 13,9 C 10,6 C 93 % 1021,3 hPa 0,0 l/m 0 min 0 min 11 W/m 0,0 km/h (0 Bft) 97,87 %
20.05.2022 05:52 14,9 C 13,9 C 10,6 C 94 % 1021,4 hPa 0,0 l/m 0 min 0 min 11 W/m 0,0 km/h (0 Bft) 97,87 %
20.05.2022 05:54 14,9 C 13,9 C 10,6 C 94 % 1021,4 hPa 0,0 l/m 0 min 0 min 12 W/m 0,0 km/h (0 Bft) 97,87 %
20.05.2022 05:56 14,9 C 13,9 C 10,6 C 94 % 1021,4 hPa 0,0 l/m 0 min 0 min 13 W/m 0,0 km/h (0 Bft) 100,00 %
20.05.2022 05:58 14,8 C 13,9 C 10,6 C 94 % 1021,5 hPa 0,0 l/m 0 min 0 min 14 W/m 0,0 km/h (0 Bft) 97,83 %
20.05.2022 06:00 14,8 C 13,9 C 10,6 C 94 % 1021,5 hPa 0,0 l/m 0 min 0 min 15 W/m 0,0 km/h (0 Bft) 97,87 %
20.05.2022 06:02 14,8 C 13,9 C 10,6 C 94 % 1021,5 hPa 0,0 l/m 0 min 0 min 17 W/m 0,0 km/h (0 Bft) 97,87 %
20.05.2022 06:04 14,8 C 13,9 C 10,6 C 94 % 1021,5 hPa 0,0 l/m 0 min 0 min 19 W/m 0,0 km/h (0 Bft) 97,87 %
20.05.2022 06:07 14,8 C 13,9 C 10,6 C 94 % 1021,5 hPa 0,0 l/m 0 min 0 min 21 W/m 0,0 km/h (0 Bft) 97,22 %
20.05.2022 06:08 14,8 C 13,9 C 10,6 C 94 % 1021,5 hPa 0,0 l/m 0 min 0 min 23 W/m 0,0 km/h (0 Bft) 100,00 %
20.05.2022 06:10 14,8 C 13,9 C 10,6 C 94 % 1021,6 hPa 0,0 l/m 0 min 0 min 24 W/m 0,0 km/h (0 Bft) 97,83 %
20.05.2022 06:12 14,8 C 13,9 C 10,6 C 94 % 1021,5 hPa 0,0 l/m 0 min 0 min 25 W/m 0,0 km/h (0 Bft) 100,00 %
20.05.2022 06:14 14,7 C 13,9 C 10,6 C 94 % 1021,5 hPa 0,0 l/m 0 min 0 min 27 W/m 0,0 km/h (0 Bft) 100,00 %
20.05.2022 06:16 14,7 C 13,9 C 11,1 C 94 % 1021,6 hPa 0,0 l/m 0 min 0 min 28 W/m 0,0 km/h (0 Bft) 97,87 %
20.05.2022 06:18 14,7 C 13,9 C 11,1 C 94 % 1021,5 hPa 0,0 l/m 0 min 0 min 30 W/m 0,0 km/h (0 Bft) 100,00 %
20.05.2022 06:20 14,7 C 13,9 C 11,1 C 94 % 1021,5 hPa 0,0 l/m 0 min 0 min 32 W/m 0,0 km/h (0 Bft) 100,00 %
20.05.2022 06:22 14,7 C 13,9 C 11,1 C 94 % 1021,5 hPa 0,0 l/m 0 min 0 min 32 W/m 0,0 km/h (0 Bft) 100,00 %
20.05.2022 06:24 14,7 C 13,9 C 11,1 C 94 % 1021,4 hPa 0,0 l/m 0 min 0 min 32 W/m 0,0 km/h (0 Bft) 100,00 %
20.05.2022 06:26 14,7 C 13,9 C 11,1 C 94 % 1021,4 hPa 0,0 l/m 0 min 0 min 30 W/m 0,0 km/h (0 Bft) 100,00 %
20.05.2022 06:28 14,8 C 14,4 C 11,1 C 94 % 1021,4 hPa 0,0 l/m 0 min 0 min 29 W/m 0,0 km/h (0 Bft) 100,00 %
20.05.2022 06:30 14,8 C 14,4 C 11,1 C 94 % 1021,4 hPa 0,0 l/m 0 min 0 min 26 W/m 0,0 km/h (0 Bft) 100,00 %
20.05.2022 06:32 14,8 C 14,4 C 11,1 C 94 % 1021,4 hPa 0,0 l/m 0 min 0 min 26 W/m 0,0 km/h (0 Bft) 97,87 %
20.05.2022 06:34 14,8 C 14,4 C 11,1 C 94 % 1021,4 hPa 0,0 l/m 0 min 0 min 26 W/m 0,0 km/h (0 Bft) 97,83 %
20.05.2022 06:36 14,8 C 14,4 C 11,1 C 94 % 1021,4 hPa 0,0 l/m 0 min 0 min 25 W/m 0,0 km/h (0 Bft) 100,00 %
20.05.2022 06:38 14,8 C 14,4 C 11,1 C 94 % 1021,4 hPa 0,0 l/m 0 min 0 min 25 W/m 0,0 km/h (0 Bft) 97,87 %
20.05.2022 06:40 14,8 C 14,4 C 11,1 C 94 % 1021,3 hPa 0,0 l/m 0 min 0 min 25 W/m 0,0 km/h (0 Bft) 95,74 %
20.05.2022 06:42 14,8 C 14,4 C 11,1 C 94 % 1021,3 hPa 0,0 l/m 0 min 0 min 25 W/m 0,0 km/h (0 Bft) 97,87 %
20.05.2022 06:44 14,8 C 14,4 C 11,1 C 94 % 1021,3 hPa 0,0 l/m 0 min 0 min 25 W/m 0,0 km/h (0 Bft) 97,87 %
20.05.2022 06:46 14,8 C 14,4 C 11,1 C 94 % 1021,3 hPa 0,0 l/m 0 min 0 min 26 W/m 0,0 km/h (0 Bft) 97,83 %
20.05.2022 06:48 14,8 C 14,4 C 11,1 C 94 % 1021,3 hPa 0,0 l/m 0 min 0 min 28 W/m 0,0 km/h (0 Bft) 95,74 %
20.05.2022 06:50 14,8 C 14,4 C 11,1 C 94 % 1021,2 hPa 0,0 l/m 0 min 0 min 28 W/m 0,0 km/h (0 Bft) 97,87 %
20.05.2022 06:52 14,8 C 14,4 C 11,1 C 94 % 1021,2 hPa 0,0 l/m 0 min 0 min 27 W/m 0,0 km/h (0 Bft) 97,87 %
20.05.2022 06:54 14,8 C 14,4 C 11,1 C 94 % 1021,2 hPa 0,0 l/m 0 min 0 min 27 W/m 0,0 km/h (0 Bft) 95,74 %
20.05.2022 06:56 14,8 C 14,4 C 11,1 C 94 % 1021,3 hPa 0,0 l/m 0 min 0 min 29 W/m 0,0 km/h (0 Bft) 93,62 %
20.05.2022 06:58 14,8 C 14,4 C 11,1 C 94 % 1021,2 hPa 0,0 l/m 0 min 0 min 35 W/m 0,0 km/h (0 Bft) 95,65 %
20.05.2022 07:00 14,8 C 14,4 C 11,1 C 94 % 1021,2 hPa 0,0 l/m 0 min 0 min 41 W/m 0,0 km/h (0 Bft) 95,74 %
20.05.2022 07:02 14,9 C 14,4 C 11,1 C 94 % 1021,2 hPa 0,0 l/m 0 min 0 min 50 W/m 0,0 km/h (0 Bft) 95,74 %
20.05.2022 07:04 14,9 C 14,4 C 11,1 C 94 % 1021,1 hPa 0,0 l/m 0 min 0 min 49 W/m 0,0 km/h (0 Bft) 93,62 %
20.05.2022 07:06 14,9 C 14,4 C 11,1 C 94 % 1021,1 hPa 0,0 l/m 0 min 0 min 44 W/m 0,0 km/h (0 Bft) 95,74 %
20.05.2022 07:08 14,9 C 14,4 C 11,1 C 94 % 1021,1 hPa 0,0 l/m 0 min 0 min 47 W/m 0,0 km/h (0 Bft) 93,62 %
20.05.2022 07:10 14,9 C 15,0 C 11,1 C 95 % 1021,1 hPa 0,0 l/m 0 min 0 min 50 W/m 0,0 km/h (0 Bft) 93,48 %
20.05.2022 07:12 15,0 C 15,0 C 11,1 C 95 % 1021,0 hPa 0,0 l/m 0 min 0 min 54 W/m 0,0 km/h (0 Bft) 95,74 %
20.05.2022 07:14 15,0 C 15,0 C 11,1 C 95 % 1021,0 hPa 0,0 l/m 0 min 0 min 58 W/m 0,0 km/h (0 Bft) 93,62 %
20.05.2022 07:16 15,0 C 15,0 C 11,1 C 95 % 1021,1 hPa 0,0 l/m 0 min 0 min 62 W/m 0,0 km/h (0 Bft) 97,87 %
20.05.2022 07:18 15,1 C 15,0 C 11,7 C 95 % 1021,1 hPa 0,0 l/m 0 min 0 min 66 W/m 0,0 km/h (0 Bft) 95,74 %
20.05.2022 07:20 15,1 C 15,0 C 11,7 C 95 % 1021,0 hPa 0,0 l/m 0 min 0 min 76 W/m 3,2 km/h (1 Bft) 95,74 %
20.05.2022 07:22 15,1 C 15,0 C 11,7 C 95 % 1021,0 hPa 0,0 l/m 0 min 0 min 85 W/m 3,2 km/h (1 Bft) 95,65 %
20.05.2022 07:24 15,1 C 15,6 C 11,7 C 95 % 1020,9 hPa 0,0 l/m 0 min 0 min 73 W/m 3,2 km/h (1 Bft) 97,87 %
20.05.2022 07:26 15,2 C 15,6 C 11,7 C 95 % 1020,9 hPa 0,0 l/m 0 min 0 min 70 W/m 3,2 km/h (1 Bft) 100,00 %
20.05.2022 07:28 15,2 C 15,6 C 11,7 C 95 % 1020,9 hPa 0,0 l/m 0 min 0 min 77 W/m 3,2 km/h (1 Bft) 97,87 %
20.05.2022 07:30 15,2 C 15,6 C 11,7 C 95 % 1020,9 hPa 0,0 l/m 0 min 0 min 82 W/m 6,4 km/h (2 Bft) 100,00 %
20.05.2022 07:32 15,3 C 15,6 C 11,7 C 95 % 1020,8 hPa 0,0 l/m 0 min 0 min 81 W/m 3,2 km/h (1 Bft) 100,00 %
20.05.2022 07:34 15,3 C 15,6 C 11,7 C 95 % 1020,8 hPa 0,0 l/m 0 min 0 min 76 W/m 3,2 km/h (1 Bft) 100,00 %
20.05.2022 07:36 15,3 C 15,6 C 11,7 C 95 % 1020,7 hPa 0,0 l/m 0 min 0 min 74 W/m 3,2 km/h (1 Bft) 97,87 %
20.05.2022 07:38 15,4 C 15,6 C 11,7 C 95 % 1020,7 hPa 0,0 l/m 0 min 0 min 76 W/m 6,4 km/h (2 Bft) 100,00 %
20.05.2022 07:40 15,4 C 15,6 C 11,7 C 95 % 1020,6 hPa 0,0 l/m 0 min 0 min 72 W/m 6,4 km/h (2 Bft) 100,00 %
20.05.2022 07:42 15,4 C 15,6 C 11,7 C 95 % 1020,6 hPa 0,0 l/m 0 min 0 min 64 W/m 6,4 km/h (2 Bft) 100,00 %
20.05.2022 07:44 15,4 C 15,6 C 11,7 C 95 % 1020,6 hPa 0,0 l/m 0 min 0 min 62 W/m 3,2 km/h (1 Bft) 100,00 %
20.05.2022 07:46 15,4 C 15,6 C 11,7 C 95 % 1020,7 hPa 0,0 l/m 0 min 0 min 66 W/m 3,2 km/h (1 Bft) 95,65 %
20.05.2022 07:48 15,5 C 15,6 C 12,2 C 95 % 1020,7 hPa 0,0 l/m 0 min 0 min 69 W/m 6,4 km/h (2 Bft) 100,00 %
20.05.2022 07:50 15,6 C 15,6 C 12,2 C 95 % 1020,6 hPa 0,0 l/m 0 min 0 min 85 W/m 3,2 km/h (1 Bft) 100,00 %
20.05.2022 07:52 15,6 C 15,6 C 12,2 C 95 % 1020,5 hPa 0,0 l/m 2 min 0 min 166 W/m 6,4 km/h (2 Bft) 100,00 %
20.05.2022 07:54 15,6 C 16,1 C 12,2 C 95 % 1020,5 hPa 0,0 l/m 2 min 0 min 211 W/m 6,4 km/h (2 Bft) 97,87 %
20.05.2022 07:56 15,7 C 16,1 C 12,2 C 95 % 1020,4 hPa 0,0 l/m 2 min 0 min 215 W/m 3,2 km/h (1 Bft) 97,87 %
20.05.2022 07:58 15,7 C 16,1 C 12,2 C 95 % 1020,5 hPa 0,0 l/m 2 min 0 min 244 W/m 3,2 km/h (1 Bft) 100,00 %
20.05.2022 08:00 15,8 C 16,1 C 12,2 C 95 % 1020,5 hPa 0,0 l/m 2 min 0 min 262 W/m 6,4 km/h (2 Bft) 100,00 %
20.05.2022 08:02 15,9 C 16,1 C 12,8 C 95 % 1020,5 hPa 0,0 l/m 2 min 0 min 269 W/m 9,7 km/h (2 Bft) 97,87 %
20.05.2022 08:04 15,9 C 16,1 C 12,8 C 95 % 1020,5 hPa 0,0 l/m 2 min 0 min 266 W/m 3,2 km/h (1 Bft) 100,00 %
20.05.2022 08:06 15,9 C 16,7 C 12,8 C 95 % 1020,5 hPa 0,0 l/m 2 min 0 min 264 W/m 6,4 km/h (2 Bft) 100,00 %
20.05.2022 08:08 16,0 C 16,7 C 12,8 C 95 % 1020,6 hPa 0,0 l/m 2 min 0 min 266 W/m 6,4 km/h (2 Bft) 97,87 %
20.05.2022 08:10 16,1 C 17,2 C 12,8 C 95 % 1020,7 hPa 0,0 l/m 2 min 0 min 241 W/m 6,4 km/h (2 Bft) 97,83 %
20.05.2022 08:12 16,1 C 17,2 C 12,8 C 94 % 1020,6 hPa 0,0 l/m 2 min 0 min 275 W/m 6,4 km/h (2 Bft) 97,87 %
20.05.2022 08:14 16,2 C 17,8 C 12,8 C 94 % 1020,6 hPa 0,0 l/m 2 min 0 min 304 W/m 6,4 km/h (2 Bft) 97,87 %
20.05.2022 08:16 16,2 C 17,8 C 12,8 C 94 % 1020,5 hPa 0,0 l/m 2 min 0 min 311 W/m 6,4 km/h (2 Bft) 95,74 %
20.05.2022 08:18 16,3 C 18,3 C 12,8 C 93 % 1020,5 hPa 0,0 l/m 2 min 0 min 318 W/m 9,7 km/h (2 Bft) 97,87 %
20.05.2022 08:20 16,4 C 18,9 C 13,3 C 93 % 1020,5 hPa 0,0 l/m 2 min 0 min 323 W/m 6,4 km/h (2 Bft) 95,74 %
20.05.2022 08:22 16,6 C 20,0 C 13,3 C 92 % 1020,5 hPa 0,0 l/m 2 min 0 min 331 W/m 0,0 km/h (0 Bft) 97,83 %
20.05.2022 08:24 16,8 C 20,6 C 13,3 C 92 % 1020,5 hPa 0,0 l/m 2 min 0 min 337 W/m 3,2 km/h (1 Bft) 97,87 %
20.05.2022 08:26 16,9 C 20,6 C 13,3 C 91 % 1020,5 hPa 0,0 l/m 2 min 0 min 338 W/m 3,2 km/h (1 Bft) 95,74 %
20.05.2022 08:28 17,1 C 21,1 C 13,9 C 90 % 1020,4 hPa 0,0 l/m 2 min 0 min 338 W/m 3,2 km/h (1 Bft) 97,87 %
20.05.2022 08:30 17,3 C 21,1 C 13,9 C 90 % 1020,3 hPa 0,0 l/m 2 min 0 min 343 W/m 3,2 km/h (1 Bft) 97,87 %
20.05.2022 08:32 17,5 C 21,1 C 13,9 C 89 % 1020,4 hPa 0,0 l/m 2 min 0 min 360 W/m 9,7 km/h (2 Bft) 97,87 %
20.05.2022 08:34 17,7 C 21,7 C 13,9 C 87 % 1020,4 hPa 0,0 l/m 2 min 0 min 363 W/m 6,4 km/h (2 Bft) 97,83 %
20.05.2022 08:36 17,8 C 21,7 C 13,9 C 86 % 1020,4 hPa 0,0 l/m 2 min 0 min 365 W/m 6,4 km/h (2 Bft) 97,87 %
20.05.2022 08:38 17,9 C 22,2 C 14,4 C 86 % 1020,5 hPa 0,0 l/m 2 min 0 min 375 W/m 3,2 km/h (1 Bft) 97,87 %
20.05.2022 08:40 18,2 C 22,2 C 14,4 C 85 % 1020,5 hPa 0,0 l/m 2 min 0 min 380 W/m 9,7 km/h (2 Bft) 93,62 %
20.05.2022 08:42 18,3 C 22,2 C 15,0 C 84 % 1020,5 hPa 0,0 l/m 2 min 0 min 376 W/m 6,4 km/h (2 Bft) 97,87 %
20.05.2022 08:44 18,5 C 21,7 C 15,0 C 82 % 1020,6 hPa 0,0 l/m 2 min 0 min 372 W/m 6,4 km/h (2 Bft) 95,74 %
20.05.2022 08:46 18,6 C 21,7 C 15,0 C 81 % 1020,6 hPa 0,0 l/m 2 min 0 min 392 W/m 9,7 km/h (2 Bft) 97,83 %
20.05.2022 08:48 18,6 C 21,7 C 15,0 C 81 % 1020,6 hPa 0,0 l/m 2 min 0 min 387 W/m 6,4 km/h (2 Bft) 97,87 %
20.05.2022 08:50 18,6 C 21,7 C 15,0 C 81 % 1020,7 hPa 0,0 l/m 2 min 0 min 397 W/m 16,1 km/h (3 Bft) 95,74 %
20.05.2022 08:52 18,6 C 22,8 C 15,6 C 81 % 1020,7 hPa 0,0 l/m 2 min 0 min 399 W/m 6,4 km/h (2 Bft) 95,74 %
20.05.2022 08:54 18,7 C 22,8 C 15,6 C 81 % 1020,7 hPa 0,0 l/m 2 min 0 min 413 W/m 6,4 km/h (2 Bft) 95,74 %
20.05.2022 08:56 18,9 C 23,3 C 16,1 C 81 % 1020,7 hPa 0,0 l/m 2 min 0 min 426 W/m 3,2 km/h (1 Bft) 95,74 %
20.05.2022 08:58 19,1 C 23,3 C 16,1 C 81 % 1020,6 hPa 0,0 l/m 2 min 0 min 438 W/m 6,4 km/h (2 Bft) 95,65 %
20.05.2022 09:00 19,2 C 22,8 C 15,6 C 80 % 1020,6 hPa 0,0 l/m 2 min 0 min 314 W/m 6,4 km/h (2 Bft) 95,74 %
20.05.2022 09:02 19,2 C 22,8 C 15,6 C 79 % 1020,5 hPa 0,0 l/m 2 min 0 min 365 W/m 9,7 km/h (2 Bft) 95,74 %
20.05.2022 09:04 19,2 C 23,3 C 16,1 C 79 % 1020,5 hPa 0,0 l/m 2 min 0 min 418 W/m 6,4 km/h (2 Bft) 93,62 %
20.05.2022 09:06 19,3 C 23,9 C 16,1 C 79 % 1020,4 hPa 0,0 l/m 2 min 0 min 420 W/m 6,4 km/h (2 Bft) 95,74 %
20.05.2022 09:08 19,3 C 23,9 C 16,1 C 79 % 1020,3 hPa 0,0 l/m 2 min 0 min 434 W/m 12,9 km/h (3 Bft) 95,74 %
20.05.2022 09:10 19,4 C 23,9 C 16,7 C 78 % 1020,4 hPa 0,0 l/m 2 min 0 min 456 W/m 12,9 km/h (3 Bft) 95,74 %
20.05.2022 09:12 19,4 C 24,4 C 16,7 C 79 % 1020,3 hPa 0,0 l/m 2 min 0 min 461 W/m 9,7 km/h (2 Bft) 91,49 %
20.05.2022 09:14 19,4 C 25,0 C 16,7 C 80 % 1020,3 hPa 0,0 l/m 2 min 0 min 441 W/m 6,4 km/h (2 Bft) 95,74 %
20.05.2022 09:16 19,5 C 25,0 C 16,7 C 79 % 1020,3 hPa 0,0 l/m 2 min 0 min 415 W/m 9,7 km/h (2 Bft) 93,62 %
20.05.2022 09:18 19,6 C 25,0 C 17,2 C 79 % 1020,2 hPa 0,0 l/m 2 min 0 min 451 W/m 6,4 km/h (2 Bft) 91,49 %
20.05.2022 09:20 19,7 C 25,0 C 17,2 C 79 % 1020,2 hPa 0,0 l/m 2 min 0 min 469 W/m 6,4 km/h (2 Bft) 93,48 %
20.05.2022 09:22 19,8 C 25,6 C 17,2 C 78 % 1020,0 hPa 0,0 l/m 2 min 0 min 460 W/m 9,7 km/h (2 Bft) 93,62 %
20.05.2022 09:24 19,8 C 25,0 C 17,2 C 78 % 1020,0 hPa 0,0 l/m 2 min 0 min 456 W/m 9,7 km/h (2 Bft) 91,49 %
20.05.2022 09:26 19,9 C 25,0 C 17,2 C 78 % 1020,0 hPa 0,0 l/m 2 min 0 min 466 W/m 9,7 km/h (2 Bft) 95,74 %
20.05.2022 09:28 20,1 C 24,4 C 17,2 C 79 % 1020,0 hPa 0,0 l/m 2 min 0 min 463 W/m 9,7 km/h (2 Bft) 94,00 %
20.05.2022 09:30 20,1 C 23,9 C 17,2 C 78 % 1019,9 hPa 0,0 l/m 2 min 0 min 472 W/m 9,7 km/h (2 Bft) 97,83 %
20.05.2022 09:32 20,1 C 24,4 C 17,8 C 78 % 1019,9 hPa 0,0 l/m 2 min 0 min 483 W/m 9,7 km/h (2 Bft) 95,74 %
20.05.2022 09:34 20,2 C 24,4 C 17,8 C 78 % 1019,9 hPa 0,0 l/m 2 min 0 min 499 W/m 12,9 km/h (3 Bft) 97,87 %
20.05.2022 09:36 20,2 C 24,4 C 17,8 C 78 % 1019,9 hPa 0,0 l/m 2 min 0 min 495 W/m 9,7 km/h (2 Bft) 95,74 %
20.05.2022 09:38 20,3 C 24,4 C 17,8 C 78 % 1020,0 hPa 0,0 l/m 2 min 0 min 489 W/m 6,4 km/h (2 Bft) 100,00 %
20.05.2022 09:40 20,3 C 24,4 C 17,8 C 78 % 1020,0 hPa 0,0 l/m 2 min 0 min 485 W/m 9,7 km/h (2 Bft) 97,87 %
20.05.2022 09:42 20,4 C 23,9 C 17,8 C 78 % 1019,9 hPa 0,0 l/m 2 min 0 min 501 W/m 6,4 km/h (2 Bft) 97,83 %
20.05.2022 09:44 20,4 C 24,4 C 18,3 C 78 % 1019,9 hPa 0,0 l/m 2 min 0 min 525 W/m 6,4 km/h (2 Bft) 97,87 %
20.05.2022 09:46 20,6 C 24,4 C 18,3 C 78 % 1019,9 hPa 0,0 l/m 2 min 0 min 531 W/m 6,4 km/h (2 Bft) 95,74 %
20.05.2022 09:48 20,7 C 24,4 C 18,3 C 77 % 1019,8 hPa 0,0 l/m 2 min 0 min 535 W/m 6,4 km/h (2 Bft) 95,74 %
20.05.2022 09:50 20,7 C 23,9 C 18,3 C 77 % 1019,7 hPa 0,0 l/m 2 min 0 min 545 W/m 6,4 km/h (2 Bft) 95,74 %
20.05.2022 09:52 20,8 C 24,4 C 18,3 C 77 % 1019,7 hPa 0,0 l/m 2 min 0 min 552 W/m 6,4 km/h (2 Bft) 97,87 %
20.05.2022 09:54 20,9 C 24,4 C 18,3 C 77 % 1019,7 hPa 0,0 l/m 2 min 0 min 561 W/m 9,7 km/h (2 Bft) 95,74 %
20.05.2022 09:56 21,0 C 25,0 C 18,9 C 77 % 1019,6 hPa 0,0 l/m 2 min 0 min 566 W/m 6,4 km/h (2 Bft) 100,00 %
20.05.2022 09:58 21,1 C 25,0 C 18,9 C 77 % 1019,6 hPa 0,0 l/m 2 min 0 min 581 W/m 9,7 km/h (2 Bft) 97,87 %
20.05.2022 10:00 21,1 C 25,0 C 18,9 C 76 % 1019,6 hPa 0,0 l/m 2 min 0 min 590 W/m 9,7 km/h (2 Bft) 97,87 %
20.05.2022 10:02 21,2 C 25,0 C 18,9 C 76 % 1019,6 hPa 0,0 l/m 2 min 0 min 589 W/m 6,4 km/h (2 Bft) 100,00 %
20.05.2022 10:04 21,3 C 25,6 C 19,4 C 77 % 1019,6 hPa 0,0 l/m 2 min 0 min 614 W/m 3,2 km/h (1 Bft) 100,00 %
20.05.2022 10:06 21,3 C 25,6 C 19,4 C 76 % 1019,6 hPa 0,0 l/m 2 min 0 min 613 W/m 9,7 km/h (2 Bft) 100,00 %
20.05.2022 10:08 21,4 C 25,6 C 19,4 C 76 % 1019,6 hPa 0,0 l/m 2 min 0 min 596 W/m 6,4 km/h (2 Bft) 97,87 %
20.05.2022 10:10 21,4 C 25,6 C 20,0 C 76 % 1019,6 hPa 0,0 l/m 2 min 0 min 625 W/m 6,4 km/h (2 Bft) 100,00 %
20.05.2022 10:12 21,5 C 25,0 C 20,0 C 75 % 1019,6 hPa 0,0 l/m 2 min 0 min 648 W/m 3,2 km/h (1 Bft) 100,00 %
20.05.2022 10:14 21,5 C 25,0 C 20,0 C 75 % 1019,5 hPa 0,0 l/m 2 min 0 min 633 W/m 6,4 km/h (2 Bft) 100,00 %
20.05.2022 10:16 21,6 C 24,4 C 20,0 C 75 % 1019,5 hPa 0,0 l/m 2 min 0 min 522 W/m 6,4 km/h (2 Bft) 97,87 %
20.05.2022 10:18 21,6 C 24,4 C 20,0 C 75 % 1019,3 hPa 0,0 l/m 2 min 0 min 547 W/m 6,4 km/h (2 Bft) 97,83 %
20.05.2022 10:20 21,6 C 23,9 C 19,4 C 75 % 1019,3 hPa 0,0 l/m 2 min 0 min 571 W/m 12,9 km/h (3 Bft) 100,00 %
20.05.2022 10:22 21,5 C 23,9 C 19,4 C 75 % 1019,3 hPa 0,0 l/m 2 min 0 min 522 W/m 6,4 km/h (2 Bft) 97,87 %
20.05.2022 10:24 21,5 C 23,9 C 18,9 C 76 % 1019,4 hPa 0,0 l/m 2 min 0 min 556 W/m 9,7 km/h (2 Bft) 100,00 %
20.05.2022 10:26 21,4 C 23,3 C 18,9 C 75 % 1019,4 hPa 0,0 l/m 2 min 0 min 488 W/m 9,7 km/h (2 Bft) 100,00 %
20.05.2022 10:28 21,4 C 23,3 C 18,9 C 76 % 1019,4 hPa 0,0 l/m 2 min 0 min 510 W/m 6,4 km/h (2 Bft) 100,00 %
20.05.2022 10:30 21,4 C 23,3 C 18,9 C 76 % 1019,3 hPa 0,0 l/m 2 min 0 min 417 W/m 9,7 km/h (2 Bft) 97,83 %
20.05.2022 10:32 21,3 C 22,8 C 18,9 C 76 % 1019,4 hPa 0,0 l/m 2 min 0 min 439 W/m 6,4 km/h (2 Bft) 100,00 %
20.05.2022 10:34 21,3 C 22,8 C 18,9 C 76 % 1019,4 hPa 0,0 l/m 2 min 0 min 510 W/m 9,7 km/h (2 Bft) 100,00 %
20.05.2022 10:36 21,3 C 22,8 C 18,9 C 76 % 1019,3 hPa 0,0 l/m 2 min 0 min 566 W/m 3,2 km/h (1 Bft) 100,00 %
20.05.2022 10:38 21,3 C 22,2 C 18,9 C 76 % 1019,3 hPa 0,0 l/m 2 min 0 min 570 W/m 12,9 km/h (3 Bft) 100,00 %
20.05.2022 10:40 21,3 C 22,8 C 18,9 C 76 % 1019,3 hPa 0,0 l/m 2 min 0 min 528 W/m 6,4 km/h (2 Bft) 100,00 %
20.05.2022 10:42 21,3 C 22,8 C 18,9 C 77 % 1019,3 hPa 0,0 l/m 2 min 0 min 451 W/m 6,4 km/h (2 Bft) 100,00 %
20.05.2022 10:44 21,3 C 22,2 C 18,9 C 77 % 1019,3 hPa 0,0 l/m 2 min 0 min 440 W/m 6,4 km/h (2 Bft) 97,87 %
20.05.2022 10:46 21,3 C 22,8 C 18,9 C 77 % 1019,3 hPa 0,0 l/m 2 min 0 min 379 W/m 6,4 km/h (2 Bft) 97,87 %
20.05.2022 10:48 21,4 C 22,8 C 18,3 C 77 % 1019,2 hPa 0,0 l/m 2 min 0 min 364 W/m 6,4 km/h (2 Bft) 100,00 %
20.05.2022 10:50 21,4 C 22,2 C 17,8 C 77 % 1019,2 hPa 0,0 l/m 2 min 0 min 380 W/m 6,4 km/h (2 Bft) 100,00 %
20.05.2022 10:52 21,4 C 22,2 C 17,8 C 76 % 1019,2 hPa 0,0 l/m 2 min 0 min 361 W/m 6,4 km/h (2 Bft) 97,87 %
20.05.2022 10:54 21,4 C 22,2 C 17,8 C 77 % 1019,1 hPa 0,0 l/m 2 min 0 min 404 W/m 12,9 km/h (3 Bft) 97,83 %
20.05.2022 10:56 21,4 C 22,8 C 17,8 C 77 % 1019,1 hPa 0,0 l/m 2 min 0 min 459 W/m 9,7 km/h (2 Bft) 97,87 %
20.05.2022 10:58 21,4 C 22,8 C 18,3 C 77 % 1019,0 hPa 0,0 l/m 2 min 0 min 524 W/m 6,4 km/h (2 Bft) 97,87 %
20.05.2022 11:00 21,5 C 22,8 C 18,3 C 77 % 1019,0 hPa 0,0 l/m 2 min 0 min 514 W/m 6,4 km/h (2 Bft) 97,87 %
20.05.2022 11:02 21,5 C 23,3 C 18,3 C 77 % 1018,9 hPa 0,0 l/m 2 min 0 min 583 W/m 6,4 km/h (2 Bft) 97,87 %
20.05.2022 11:04 21,6 C 23,9 C 18,3 C 78 % 1018,8 hPa 0,0 l/m 2 min 0 min 710 W/m 6,4 km/h (2 Bft) 97,87 %
20.05.2022 11:06 21,8 C 24,4 C 18,9 C 78 % 1018,8 hPa 0,0 l/m 2 min 0 min 767 W/m 6,4 km/h (2 Bft) 95,65 %
20.05.2022 11:08 21,9 C 25,0 C 18,9 C 77 % 1018,8 hPa 0,0 l/m 2 min 0 min 795 W/m 6,4 km/h (2 Bft) 97,87 %
20.05.2022 11:10 22,0 C 25,0 C 18,9 C 77 % 1018,8 hPa 0,0 l/m 2 min 0 min 833 W/m 6,4 km/h (2 Bft) 97,87 %
20.05.2022 11:12 22,1 C 25,0 C 18,9 C 76 % 1018,7 hPa 0,0 l/m 2 min 0 min 776 W/m 6,4 km/h (2 Bft) 97,87 %
20.05.2022 11:14 22,2 C 25,0 C 18,9 C 76 % 1018,7 hPa 0,0 l/m 2 min 0 min 603 W/m 6,4 km/h (2 Bft) 97,87 %
20.05.2022 11:16 22,2 C 25,0 C 18,9 C 77 % 1018,7 hPa 0,0 l/m 2 min 0 min 525 W/m 3,2 km/h (1 Bft) 97,87 %
20.05.2022 11:18 22,3 C 23,9 C 18,9 C 75 % 1018,7 hPa 0,0 l/m 0 min 0 min 313 W/m 9,7 km/h (2 Bft) 97,83 %
20.05.2022 11:20 22,3 C 23,3 C 18,9 C 76 % 1018,7 hPa 0,0 l/m 2 min 0 min 390 W/m 6,4 km/h (2 Bft) 97,87 %
20.05.2022 11:22 22,3 C 23,9 C 18,9 C 76 % 1018,7 hPa 0,0 l/m 2 min 0 min 451 W/m 6,4 km/h (2 Bft) 97,87 %
20.05.2022 11:24 22,4 C 24,4 C 18,9 C 76 % 1018,6 hPa 0,0 l/m 2 min 0 min 533 W/m 6,4 km/h (2 Bft) 97,87 %
20.05.2022 11:26 22,4 C 23,9 C 19,4 C 76 % 1018,6 hPa 0,0 l/m 2 min 0 min 524 W/m 3,2 km/h (1 Bft) 97,87 %
20.05.2022 11:28 22,4 C 23,9 C 18,9 C 76 % 1018,5 hPa 0,0 l/m 2 min 0 min 401 W/m 3,2 km/h (1 Bft) 95,74 %
20.05.2022 11:30 22,4 C 23,9 C 18,9 C 76 % 1018,5 hPa 0,0 l/m 2 min 0 min 402 W/m 9,7 km/h (2 Bft) 100,00 %
20.05.2022 11:32 22,4 C 23,9 C 18,9 C 76 % 1018,5 hPa 0,0 l/m 2 min 0 min 386 W/m 9,7 km/h (2 Bft) 100,00 %
20.05.2022 11:34 22,3 C 23,9 C 18,9 C 77 % 1018,5 hPa 0,0 l/m 2 min 0 min 396 W/m 9,7 km/h (2 Bft) 100,00 %
20.05.2022 11:36 22,3 C 24,4 C 19,4 C 77 % 1018,4 hPa 0,0 l/m 2 min 0 min 530 W/m 6,4 km/h (2 Bft) 100,00 %
20.05.2022 11:38 22,4 C 24,4 C 19,4 C 77 % 1018,4 hPa 0,0 l/m 2 min 0 min 548 W/m 6,4 km/h (2 Bft) 100,00 %
20.05.2022 11:40 22,5 C 24,4 C 19,4 C 78 % 1018,3 hPa 0,0 l/m 2 min 0 min 416 W/m 9,7 km/h (2 Bft) 100,00 %
20.05.2022 11:42 22,5 C 24,4 C 19,4 C 77 % 1018,3 hPa 0,0 l/m 2 min 0 min 470 W/m 6,4 km/h (2 Bft) 100,00 %
20.05.2022 11:44 22,6 C 24,4 C 20,0 C 77 % 1018,2 hPa 0,0 l/m 2 min 0 min 674 W/m 6,4 km/h (2 Bft) 100,00 %
20.05.2022 11:46 22,6 C 25,0 C 20,0 C 78 % 1018,2 hPa 0,0 l/m 2 min 0 min 596 W/m 9,7 km/h (2 Bft) 100,00 %
20.05.2022 11:48 22,7 C 25,0 C 20,0 C 78 % 1018,2 hPa 0,0 l/m 2 min 0 min 477 W/m 9,7 km/h (2 Bft) 100,00 %
20.05.2022 11:50 22,8 C 25,6 C 20,0 C 78 % 1018,1 hPa 0,0 l/m 2 min 0 min 568 W/m 16,1 km/h (3 Bft) 97,87 %
20.05.2022 11:52 22,9 C 25,6 C 20,6 C 78 % 1018,1 hPa 0,0 l/m 2 min 0 min 807 W/m 12,9 km/h (3 Bft) 97,87 %
20.05.2022 11:54 23,0 C 25,0 C 20,0 C 77 % 1018,1 hPa 0,0 l/m 2 min 0 min 760 W/m 12,9 km/h (3 Bft) 95,65 %
20.05.2022 11:56 23,1 C 24,4 C 19,4 C 76 % 1018,0 hPa 0,0 l/m 0 min 0 min 270 W/m 6,4 km/h (2 Bft) 97,87 %
20.05.2022 11:58 23,1 C 24,4 C 19,4 C 77 % 1018,0 hPa 0,0 l/m 0 min 0 min 287 W/m 9,7 km/h (2 Bft) 97,87 %
20.05.2022 12:00 23,1 C 25,0 C 20,0 C 77 % 1018,0 hPa 0,0 l/m 0 min 0 min 255 W/m 9,7 km/h (2 Bft) 97,87 %
20.05.2022 12:02 23,1 C 24,4 C 20,0 C 77 % 1017,9 hPa 0,0 l/m 0 min 0 min 331 W/m 6,4 km/h (2 Bft) 97,87 %
20.05.2022 12:04 23,1 C 24,4 C 20,0 C 77 % 1017,9 hPa 0,0 l/m 0 min 0 min 381 W/m 9,7 km/h (2 Bft) 95,74 %
20.05.2022 12:07 23,2 C 25,0 C 20,6 C 78 % 1017,8 hPa 0,0 l/m 3 min 0 min 589 W/m 12,9 km/h (3 Bft) 97,14 %
20.05.2022 12:08 23,2 C 25,0 C 21,1 C 78 % 1017,8 hPa 0,0 l/m 1 min 0 min 599 W/m 6,4 km/h (2 Bft) 100,00 %
20.05.2022 12:10 23,3 C 25,6 C 22,2 C 78 % 1017,8 hPa 0,0 l/m 2 min 0 min 876 W/m 9,7 km/h (2 Bft) 97,87 %
20.05.2022 12:12 23,4 C 25,6 C 22,8 C 77 % 1017,7 hPa 0,0 l/m 2 min 0 min 994 W/m 9,7 km/h (2 Bft) 93,62 %
20.05.2022 12:14 23,6 C 25,6 C 22,8 C 77 % 1017,6 hPa 0,0 l/m 2 min 0 min 880 W/m 9,7 km/h (2 Bft) 95,74 %
20.05.2022 12:16 23,6 C 25,6 C 22,8 C 77 % 1017,6 hPa 0,0 l/m 2 min 0 min 515 W/m 12,9 km/h (3 Bft) 95,74 %
20.05.2022 12:18 23,7 C 25,6 C 23,3 C 76 % 1017,6 hPa 0,0 l/m 2 min 0 min 729 W/m 12,9 km/h (3 Bft) 97,87 %
20.05.2022 12:20 23,8 C 25,0 C 22,8 C 76 % 1017,5 hPa 0,0 l/m 2 min 0 min 879 W/m 12,9 km/h (3 Bft) 93,48 %
20.05.2022 12:22 23,7 C 25,0 C 21,7 C 76 % 1017,4 hPa 0,0 l/m 2 min 0 min 832 W/m 12,9 km/h (3 Bft) 93,62 %
20.05.2022 12:24 23,7 C 25,0 C 22,2 C 76 % 1017,3 hPa 0,0 l/m 2 min 0 min 745 W/m 12,9 km/h (3 Bft) 95,74 %
20.05.2022 12:26 23,7 C 25,0 C 22,8 C 77 % 1017,2 hPa 0,0 l/m 2 min 0 min 768 W/m 12,9 km/h (3 Bft) 93,62 %
20.05.2022 12:28 23,8 C 25,6 C 23,9 C 77 % 1017,1 hPa 0,0 l/m 2 min 0 min 816 W/m 12,9 km/h (3 Bft) 95,74 %
20.05.2022 12:30 23,8 C 26,1 C 25,0 C 77 % 1016,9 hPa 0,0 l/m 2 min 0 min 865 W/m 9,7 km/h (2 Bft) 93,62 %
20.05.2022 12:32 24,0 C 26,7 C 26,1 C 77 % 1016,8 hPa 0,0 l/m 2 min 0 min 845 W/m 9,7 km/h (2 Bft) 95,65 %
20.05.2022 12:34 24,2 C 27,2 C 26,1 C 77 % 1016,7 hPa 0,0 l/m 2 min 0 min 825 W/m 9,7 km/h (2 Bft) 97,87 %
20.05.2022 12:36 24,4 C 27,8 C 26,1 C 76 % 1016,6 hPa 0,0 l/m 2 min 0 min 850 W/m 12,9 km/h (3 Bft) 98,31 %
20.05.2022 12:38 24,5 C 27,8 C 26,7 C 75 % 1016,5 hPa 0,0 l/m 2 min 0 min 830 W/m 12,9 km/h (3 Bft) 97,14 %
20.05.2022 12:40 24,7 C 28,3 C 26,7 C 74 % 1016,5 hPa 0,0 l/m 2 min 0 min 836 W/m 9,7 km/h (2 Bft) 97,87 %
20.05.2022 12:42 24,8 C 27,8 C 26,7 C 74 % 1016,4 hPa 0,0 l/m 2 min 0 min 837 W/m 6,4 km/h (2 Bft) 97,87 %
20.05.2022 12:44 24,9 C 28,3 C 26,7 C 74 % 1016,4 hPa 0,0 l/m 2 min 0 min 820 W/m 9,7 km/h (2 Bft) 97,83 %
20.05.2022 12:46 24,9 C 27,2 C 26,7 C 73 % 1016,3 hPa 0,0 l/m 2 min 0 min 815 W/m 16,1 km/h (3 Bft) 93,62 %
20.05.2022 12:48 25,0 C 27,2 C 26,7 C 73 % 1016,4 hPa 0,0 l/m 2 min 0 min 823 W/m 12,9 km/h (3 Bft) 97,87 %
20.05.2022 12:50 25,1 C 27,2 C 27,2 C 73 % 1016,4 hPa 0,0 l/m 2 min 0 min 845 W/m 9,7 km/h (2 Bft) 97,87 %
20.05.2022 12:52 25,2 C 27,2 C 27,2 C 73 % 1016,4 hPa 0,0 l/m 2 min 0 min 820 W/m 12,9 km/h (3 Bft) 93,62 %
20.05.2022 12:54 25,2 C 26,7 C 27,2 C 72 % 1016,4 hPa 0,0 l/m 2 min 0 min 828 W/m 19,3 km/h (3 Bft) 97,87 %
20.05.2022 12:56 25,2 C 26,7 C 27,2 C 72 % 1016,2 hPa 0,0 l/m 2 min 0 min 825 W/m 9,7 km/h (2 Bft) 95,65 %
20.05.2022 12:58 25,3 C 27,2 C 26,7 C 72 % 1016,3 hPa 0,0 l/m 2 min 0 min 818 W/m 12,9 km/h (3 Bft) 93,62 %
20.05.2022 13:00 25,3 C 26,7 C 26,1 C 72 % 1016,1 hPa 0,0 l/m 2 min 0 min 791 W/m 12,9 km/h (3 Bft) 95,74 %
20.05.2022 13:02 25,3 C 26,7 C 26,1 C 71 % 1016,1 hPa 0,0 l/m 2 min 0 min 759 W/m 9,7 km/h (2 Bft) 93,62 %
20.05.2022 13:04 25,3 C 26,7 C 25,6 C 72 % 1016,1 hPa 0,0 l/m 2 min 0 min 726 W/m 12,9 km/h (3 Bft) 95,74 %
20.05.2022 13:06 25,3 C 26,7 C 25,0 C 72 % 1015,9 hPa 0,0 l/m 2 min 0 min 746 W/m 9,7 km/h (2 Bft) 93,10 %
20.05.2022 13:08 25,4 C 26,7 C 24,4 C 72 % 1015,9 hPa 0,0 l/m 2 min 0 min 792 W/m 12,9 km/h (3 Bft) 97,14 %
20.05.2022 13:10 25,4 C 26,7 C 24,4 C 71 % 1015,9 hPa 0,0 l/m 2 min 0 min 828 W/m 12,9 km/h (3 Bft) 95,74 %
20.05.2022 13:12 25,6 C 26,7 C 23,9 C 71 % 1015,8 hPa 0,0 l/m 2 min 0 min 829 W/m 19,3 km/h (3 Bft) 95,74 %
20.05.2022 13:14 25,6 C 26,7 C 23,3 C 72 % 1015,7 hPa 0,0 l/m 2 min 0 min 829 W/m 16,1 km/h (3 Bft) 97,87 %
20.05.2022 13:16 25,6 C 26,7 C 23,3 C 71 % 1015,6 hPa 0,0 l/m 2 min 0 min 809 W/m 16,1 km/h (3 Bft) 95,74 %
20.05.2022 13:18 25,6 C 26,7 C 22,8 C 71 % 1015,6 hPa 0,0 l/m 2 min 0 min 840 W/m 16,1 km/h (3 Bft) 97,87 %
20.05.2022 13:20 25,6 C 26,7 C 23,3 C 71 % 1015,6 hPa 0,0 l/m 2 min 0 min 848 W/m 9,7 km/h (2 Bft) 97,83 %
20.05.2022 13:22 25,7 C 27,2 C 23,9 C 71 % 1015,5 hPa 0,0 l/m 2 min 0 min 858 W/m 19,3 km/h (3 Bft) 97,87 %
20.05.2022 13:24 25,7 C 27,2 C 24,4 C 72 % 1015,4 hPa 0,0 l/m 2 min 0 min 852 W/m 9,7 km/h (2 Bft) 97,87 %
20.05.2022 13:26 25,8 C 27,8 C 25,0 C 72 % 1015,4 hPa 0,0 l/m 2 min 0 min 806 W/m 9,7 km/h (2 Bft) 97,87 %
20.05.2022 13:28 25,8 C 27,2 C 25,0 C 71 % 1015,3 hPa 0,0 l/m 2 min 0 min 776 W/m 9,7 km/h (2 Bft) 97,87 %
20.05.2022 13:30 25,8 C 27,2 C 25,6 C 71 % 1015,3 hPa 0,0 l/m 2 min 0 min 674 W/m 12,9 km/h (3 Bft) 100,00 %
20.05.2022 13:32 25,8 C 27,2 C 26,1 C 72 % 1015,2 hPa 0,0 l/m 2 min 0 min 786 W/m 6,4 km/h (2 Bft) 100,00 %
20.05.2022 13:34 25,9 C 27,8 C 26,7 C 72 % 1015,1 hPa 0,0 l/m 2 min 0 min 889 W/m 12,9 km/h (3 Bft) 100,00 %
20.05.2022 13:36 26,1 C 27,8 C 27,8 C 72 % 1015,0 hPa 0,0 l/m 2 min 0 min 863 W/m 16,1 km/h (3 Bft) 100,00 %
20.05.2022 13:38 26,1 C 27,2 C 26,7 C 70 % 1014,9 hPa 0,0 l/m 2 min 0 min 826 W/m 12,9 km/h (3 Bft) 100,00 %
20.05.2022 13:40 26,1 C 27,2 C 26,1 C 70 % 1014,9 hPa 0,0 l/m 2 min 0 min 812 W/m 19,3 km/h (3 Bft) 100,00 %
20.05.2022 13:42 26,1 C 27,2 C 26,7 C 71 % 1014,9 hPa 0,0 l/m 2 min 0 min 787 W/m 9,7 km/h (2 Bft) 100,00 %
20.05.2022 13:44 26,1 C 27,8 C 26,7 C 71 % 1014,8 hPa 0,0 l/m 2 min 0 min 836 W/m 9,7 km/h (2 Bft) 100,00 %
20.05.2022 13:46 26,1 C 28,3 C 26,1 C 71 % 1014,6 hPa 0,0 l/m 2 min 0 min 886 W/m 6,4 km/h (2 Bft) 100,00 %
20.05.2022 13:48 26,2 C 28,3 C 26,1 C 72 % 1014,5 hPa 0,0 l/m 2 min 0 min 900 W/m 9,7 km/h (2 Bft) 100,00 %
20.05.2022 13:50 26,3 C 28,3 C 25,0 C 71 % 1014,4 hPa 0,0 l/m 2 min 0 min 749 W/m 12,9 km/h (3 Bft) 100,00 %
20.05.2022 13:52 26,3 C 27,8 C 25,0 C 71 % 1014,3 hPa 0,0 l/m 2 min 0 min 585 W/m 12,9 km/h (3 Bft) 100,00 %
20.05.2022 13:54 26,3 C 27,2 C 23,9 C 70 % 1014,2 hPa 0,0 l/m 2 min 0 min 536 W/m 12,9 km/h (3 Bft) 100,00 %
20.05.2022 13:56 26,2 C 26,7 C 23,3 C 70 % 1014,1 hPa 0,0 l/m 2 min 0 min 457 W/m 12,9 km/h (3 Bft) 100,00 %
20.05.2022 13:58 26,1 C 26,7 C 22,8 C 71 % 1014,0 hPa 0,0 l/m 0 min 0 min 393 W/m 12,9 km/h (3 Bft) 100,00 %
20.05.2022 14:00 26,0 C 26,1 C 22,8 C 71 % 1013,9 hPa 0,0 l/m 0 min 0 min 314 W/m 19,3 km/h (3 Bft) 100,00 %
20.05.2022 14:02 25,9 C 25,6 C 22,2 C 72 % 1013,8 hPa 0,0 l/m 0 min 0 min 284 W/m 12,9 km/h (3 Bft) 100,00 %
20.05.2022 14:04 25,8 C 25,6 C 22,2 C 72 % 1013,7 hPa 0,0 l/m 0 min 0 min 253 W/m 12,9 km/h (3 Bft) 100,00 %
20.05.2022 14:06 25,7 C 25,0 C 21,7 C 72 % 1013,7 hPa 0,0 l/m 0 min 0 min 221 W/m 16,1 km/h (3 Bft) 100,00 %
20.05.2022 14:08 25,6 C 25,0 C 21,7 C 72 % 1013,7 hPa 0,0 l/m 0 min 0 min 193 W/m 12,9 km/h (3 Bft) 100,00 %
20.05.2022 14:10 25,6 C 25,0 C 21,7 C 73 % 1013,7 hPa 0,0 l/m 0 min 0 min 173 W/m 12,9 km/h (3 Bft) 100,00 %
20.05.2022 14:12 25,4 C 24,4 C 21,7 C 73 % 1013,9 hPa 0,0 l/m 0 min 0 min 158 W/m 6,4 km/h (2 Bft) 97,87 %
20.05.2022 14:14 25,3 C 24,4 C 21,1 C 73 % 1013,9 hPa 0,0 l/m 0 min 0 min 140 W/m 9,7 km/h (2 Bft) 100,00 %
20.05.2022 14:16 25,2 C 23,9 C 21,1 C 73 % 1013,9 hPa 0,0 l/m 0 min 0 min 122 W/m 16,1 km/h (3 Bft) 100,00 %
20.05.2022 14:18 25,2 C 23,9 C 21,1 C 74 % 1013,6 hPa 0,0 l/m 0 min 0 min 109 W/m 6,4 km/h (2 Bft) 100,00 %
20.05.2022 14:20 25,1 C 23,9 C 21,1 C 74 % 1013,6 hPa 0,0 l/m 0 min 0 min 95 W/m 6,4 km/h (2 Bft) 100,00 %
20.05.2022 14:22 25,0 C 23,9 C 20,6 C 74 % 1013,7 hPa 0,0 l/m 0 min 0 min 79 W/m 6,4 km/h (2 Bft) 97,87 %
20.05.2022 14:24 24,9 C 23,9 C 20,6 C 75 % 1014,0 hPa 0,0 l/m 0 min 0 min 67 W/m 6,4 km/h (2 Bft) 97,87 %
20.05.2022 14:26 24,8 C 23,9 C 20,6 C 75 % 1014,2 hPa 0,0 l/m 0 min 0 min 59 W/m 6,4 km/h (2 Bft) 97,87 %
20.05.2022 14:28 24,8 C 23,3 C 20,0 C 75 % 1014,4 hPa 0,0 l/m 0 min 0 min 51 W/m 6,4 km/h (2 Bft) 97,87 %
20.05.2022 14:30 24,7 C 23,3 C 20,0 C 76 % 1014,5 hPa 0,0 l/m 0 min 2 min 45 W/m 12,9 km/h (3 Bft) 95,74 %
20.05.2022 14:32 24,7 C 23,3 C 19,4 C 76 % 1014,6 hPa 0,0 l/m 0 min 2 min 37 W/m 12,9 km/h (3 Bft) 97,83 %
20.05.2022 14:34 24,6 C 23,3 C 18,9 C 77 % 1014,6 hPa 0,0 l/m 0 min 2 min 27 W/m 12,9 km/h (3 Bft) 97,87 %
20.05.2022 14:36 24,6 C 22,8 C 18,3 C 78 % 1014,7 hPa 0,0 l/m 0 min 2 min 18 W/m 6,4 km/h (2 Bft) 98,31 %
20.05.2022 14:38 24,4 C 22,8 C 17,8 C 78 % 1014,6 hPa 0,0 l/m 0 min 2 min 14 W/m 12,9 km/h (3 Bft) 97,14 %
20.05.2022 14:40 24,3 C 22,8 C 17,2 C 79 % 1014,6 hPa 0,0 l/m 0 min 2 min 12 W/m 16,1 km/h (3 Bft) 97,87 %
20.05.2022 14:42 24,2 C 22,2 C 16,7 C 79 % 1014,4 hPa 0,2 l/m 0 min 2 min 12 W/m 16,1 km/h (3 Bft) 97,87 %
20.05.2022 14:44 24,1 C 22,2 C 16,7 C 80 % 1014,3 hPa 0,0 l/m 0 min 2 min 11 W/m 12,9 km/h (3 Bft) 97,83 %
20.05.2022 14:46 23,9 C 22,2 C 16,7 C 80 % 1014,3 hPa 0,0 l/m 0 min 2 min 9 W/m 6,4 km/h (2 Bft) 96,36 %
20.05.2022 14:48 23,8 C 21,7 C 16,7 C 81 % 1014,2 hPa 0,0 l/m 0 min 2 min 7 W/m 12,9 km/h (3 Bft) 95,74 %
20.05.2022 14:50 23,8 C 21,7 C 16,7 C 81 % 1014,1 hPa 0,0 l/m 0 min 2 min 7 W/m 3,2 km/h (1 Bft) 97,87 %
20.05.2022 14:52 23,7 C 21,7 C 16,7 C 82 % 1014,1 hPa 0,0 l/m 0 min 2 min 6 W/m 12,9 km/h (3 Bft) 97,87 %
20.05.2022 14:54 23,6 C 21,1 C 16,1 C 82 % 1014,2 hPa 0,2 l/m 0 min 2 min 3 W/m 6,4 km/h (2 Bft) 97,87 %
20.05.2022 14:56 23,4 C 21,1 C 16,7 C 83 % 1014,5 hPa 0,0 l/m 0 min 2 min 0 W/m 12,9 km/h (3 Bft) 95,65 %
20.05.2022 14:58 23,3 C 21,1 C 16,7 C 84 % 1014,7 hPa 0,4 l/m 0 min 2 min 0 W/m 6,4 km/h (2 Bft) 95,74 %
20.05.2022 15:00 23,2 C 20,6 C 16,7 C 85 % 1015,0 hPa 0,0 l/m 0 min 2 min 0 W/m 19,3 km/h (3 Bft) 93,62 %
20.05.2022 15:02 23,0 C 20,6 C 16,7 C 86 % 1014,6 hPa 0,2 l/m 0 min 2 min 0 W/m 16,1 km/h (3 Bft) 93,62 %
20.05.2022 15:04 22,7 C 20,6 C 16,1 C 86 % 1014,6 hPa 0,2 l/m 0 min 2 min 5 W/m 25,7 km/h (4 Bft) 95,74 %
20.05.2022 15:06 22,4 C 20,0 C 16,1 C 86 % 1014,7 hPa 0,0 l/m 0 min 2 min 7 W/m 29,0 km/h (5 Bft) 95,74 %
20.05.2022 15:08 22,2 C 20,0 C 15,6 C 87 % 1014,8 hPa 0,2 l/m 0 min 2 min 10 W/m 48,3 km/h (6 Bft) 95,65 %
20.05.2022 15:10 21,8 C 19,4 C 15,6 C 87 % 1014,6 hPa 0,0 l/m 0 min 2 min 15 W/m 25,7 km/h (4 Bft) 97,87 %
20.05.2022 15:12 21,6 C 19,4 C 15,6 C 87 % 1014,5 hPa 0,2 l/m 0 min 2 min 22 W/m 25,7 km/h (4 Bft) 95,74 %
20.05.2022 15:14 21,4 C 18,9 C 15,6 C 88 % 1014,5 hPa 0,0 l/m 0 min 2 min 31 W/m 19,3 km/h (3 Bft) 97,83 %
20.05.2022 15:16 21,3 C 18,9 C 15,6 C 88 % 1014,2 hPa 0,0 l/m 0 min 2 min 42 W/m 19,3 km/h (3 Bft) 97,87 %
20.05.2022 15:18 21,1 C 18,9 C 15,6 C 89 % 1014,2 hPa 0,0 l/m 0 min 2 min 58 W/m 16,1 km/h (3 Bft) 95,74 %
20.05.2022 15:20 21,1 C 19,4 C 15,6 C 89 % 1014,1 hPa 0,0 l/m 0 min 0 min 85 W/m 16,1 km/h (3 Bft) 97,83 %
20.05.2022 15:22 20,9 C 19,4 C 15,6 C 89 % 1013,9 hPa 0,0 l/m 0 min 0 min 133 W/m 22,5 km/h (4 Bft) 93,62 %
20.05.2022 15:24 20,9 C 19,4 C 15,6 C 90 % 1014,0 hPa 0,0 l/m 0 min 0 min 184 W/m 16,1 km/h (3 Bft) 97,87 %
20.05.2022 15:26 20,8 C 20,0 C 15,6 C 90 % 1013,8 hPa 0,0 l/m 0 min 0 min 221 W/m 9,7 km/h (2 Bft) 100,00 %
20.05.2022 15:28 20,9 C 20,0 C 15,6 C 90 % 1013,7 hPa 0,0 l/m 0 min 0 min 242 W/m 9,7 km/h (2 Bft) 97,87 %
20.05.2022 15:30 20,9 C 20,6 C 15,6 C 91 % 1013,6 hPa 0,0 l/m 0 min 0 min 294 W/m 19,3 km/h (3 Bft) 97,87 %
20.05.2022 15:32 20,9 C 21,1 C 16,1 C 91 % 1013,6 hPa 0,0 l/m 2 min 2 min 433 W/m 6,4 km/h (2 Bft) 95,65 %
20.05.2022 15:34 21,0 C 21,7 C 16,1 C 92 % 1013,5 hPa 0,0 l/m 2 min 0 min 571 W/m 12,9 km/h (3 Bft) 97,87 %
20.05.2022 15:36 21,1 C 22,2 C 16,1 C 92 % 1013,5 hPa 0,0 l/m 2 min 0 min 635 W/m 12,9 km/h (3 Bft) 97,87 %
20.05.2022 15:38 21,2 C 22,2 C 16,1 C 92 % 1013,5 hPa 0,0 l/m 2 min 0 min 510 W/m 9,7 km/h (2 Bft) 97,87 %
20.05.2022 15:40 21,3 C 22,8 C 16,7 C 92 % 1013,5 hPa 0,0 l/m 2 min 0 min 443 W/m 12,9 km/h (3 Bft) 97,87 %
20.05.2022 15:42 21,4 C 22,2 C 16,1 C 92 % 1013,5 hPa 0,0 l/m 2 min 0 min 401 W/m 16,1 km/h (3 Bft) 95,74 %
20.05.2022 15:44 21,4 C 22,2 C 16,1 C 92 % 1013,5 hPa 0,0 l/m 2 min 0 min 405 W/m 12,9 km/h (3 Bft) 95,65 %
20.05.2022 15:46 21,5 C 22,8 C 16,1 C 92 % 1013,5 hPa 0,0 l/m 2 min 0 min 444 W/m 6,4 km/h (2 Bft) 97,87 %
20.05.2022 15:48 21,6 C 22,8 C 16,7 C 92 % 1013,6 hPa 0,0 l/m 2 min 0 min 477 W/m 9,7 km/h (2 Bft) 100,00 %
20.05.2022 15:50 21,7 C 23,3 C 16,7 C 92 % 1013,5 hPa 0,0 l/m 2 min 0 min 550 W/m 9,7 km/h (2 Bft) 97,87 %
20.05.2022 15:52 21,8 C 23,3 C 16,7 C 92 % 1013,7 hPa 0,0 l/m 2 min 0 min 493 W/m 16,1 km/h (3 Bft) 95,74 %
20.05.2022 15:54 21,8 C 23,3 C 16,7 C 91 % 1013,6 hPa 0,0 l/m 2 min 0 min 434 W/m 19,3 km/h (3 Bft) 95,74 %
20.05.2022 15:56 21,9 C 23,3 C 16,1 C 91 % 1013,6 hPa 0,0 l/m 2 min 0 min 396 W/m 6,4 km/h (2 Bft) 97,83 %
20.05.2022 15:58 21,9 C 23,3 C 16,1 C 90 % 1013,6 hPa 0,0 l/m 2 min 0 min 425 W/m 19,3 km/h (3 Bft) 97,87 %
20.05.2022 16:00 22,0 C 23,3 C 16,1 C 89 % 1013,7 hPa 0,0 l/m 2 min 0 min 423 W/m 9,7 km/h (2 Bft) 97,87 %
20.05.2022 16:02 22,1 C 23,3 C 16,1 C 89 % 1013,9 hPa 0,0 l/m 2 min 0 min 365 W/m 6,4 km/h (2 Bft) 95,74 %
20.05.2022 16:04 22,1 C 23,3 C 16,7 C 88 % 1014,0 hPa 0,0 l/m 0 min 0 min 299 W/m 6,4 km/h (2 Bft) 97,87 %
20.05.2022 16:06 22,2 C 22,8 C 16,1 C 88 % 1014,0 hPa 0,0 l/m 0 min 0 min 324 W/m 22,5 km/h (4 Bft) 97,83 %
20.05.2022 16:08 22,2 C 22,8 C 16,1 C 88 % 1014,1 hPa 0,0 l/m 0 min 0 min 291 W/m 19,3 km/h (3 Bft) 97,87 %
20.05.2022 16:10 22,3 C 22,2 C 16,1 C 88 % 1014,0 hPa 0,0 l/m 0 min 0 min 238 W/m 16,1 km/h (3 Bft) 97,87 %
20.05.2022 16:12 22,3 C 22,2 C 16,1 C 88 % 1014,1 hPa 0,0 l/m 0 min 0 min 235 W/m 19,3 km/h (3 Bft) 97,87 %
20.05.2022 16:14 22,3 C 22,2 C 16,1 C 87 % 1014,0 hPa 0,0 l/m 0 min 0 min 210 W/m 12,9 km/h (3 Bft) 97,87 %
20.05.2022 16:16 22,2 C 21,7 C 16,1 C 86 % 1014,0 hPa 0,0 l/m 0 min 0 min 160 W/m 19,3 km/h (3 Bft) 100,00 %
20.05.2022 16:18 22,2 C 21,7 C 16,1 C 86 % 1014,0 hPa 0,0 l/m 0 min 0 min 125 W/m 25,7 km/h (4 Bft) 100,00 %
20.05.2022 16:20 22,1 C 21,1 C 15,6 C 86 % 1014,0 hPa 0,0 l/m 0 min 0 min 88 W/m 19,3 km/h (3 Bft) 100,00 %
20.05.2022 16:22 22,1 C 21,1 C 16,1 C 86 % 1014,0 hPa 0,0 l/m 0 min 0 min 68 W/m 12,9 km/h (3 Bft) 97,87 %
20.05.2022 16:24 22,1 C 21,1 C 16,1 C 86 % 1013,9 hPa 0,0 l/m 0 min 2 min 65 W/m 12,9 km/h (3 Bft) 97,87 %
20.05.2022 16:26 22,1 C 21,1 C 15,6 C 87 % 1014,0 hPa 0,0 l/m 0 min 2 min 71 W/m 25,7 km/h (4 Bft) 97,87 %
20.05.2022 16:28 22,1 C 21,1 C 15,6 C 87 % 1014,1 hPa 0,0 l/m 0 min 2 min 68 W/m 16,1 km/h (3 Bft) 100,00 %
20.05.2022 16:30 22,0 C 20,6 C 15,6 C 87 % 1014,0 hPa 0,0 l/m 0 min 2 min 65 W/m 25,7 km/h (4 Bft) 100,00 %
20.05.2022 16:32 21,9 C 20,6 C 15,6 C 87 % 1014,1 hPa 0,0 l/m 0 min 2 min 53 W/m 16,1 km/h (3 Bft) 100,00 %
20.05.2022 16:34 21,8 C 20,6 C 15,6 C 86 % 1014,0 hPa 0,0 l/m 0 min 2 min 47 W/m 12,9 km/h (3 Bft) 100,00 %
20.05.2022 16:36 21,7 C 20,6 C 15,0 C 86 % 1013,9 hPa 0,0 l/m 0 min 2 min 50 W/m 22,5 km/h (4 Bft) 95,74 %
20.05.2022 16:38 21,6 C 20,6 C 15,0 C 85 % 1013,9 hPa 0,0 l/m 0 min 2 min 61 W/m 22,5 km/h (4 Bft) 100,00 %
20.05.2022 16:40 21,6 C 20,6 C 15,0 C 86 % 1013,8 hPa 0,0 l/m 0 min 2 min 70 W/m 6,4 km/h (2 Bft) 97,87 %
20.05.2022 16:42 21,6 C 20,6 C 15,6 C 86 % 1013,8 hPa 0,0 l/m 0 min 2 min 76 W/m 19,3 km/h (3 Bft) 97,83 %
20.05.2022 16:44 21,6 C 20,6 C 15,0 C 86 % 1013,7 hPa 0,0 l/m 0 min 2 min 76 W/m 12,9 km/h (3 Bft) 100,00 %
20.05.2022 16:46 21,4 C 20,6 C 15,0 C 86 % 1013,7 hPa 0,0 l/m 0 min 2 min 79 W/m 12,9 km/h (3 Bft) 100,00 %
20.05.2022 16:48 21,4 C 20,6 C 15,0 C 87 % 1013,6 hPa 0,0 l/m 0 min 2 min 86 W/m 12,9 km/h (3 Bft) 95,74 %
20.05.2022 16:50 21,4 C 20,6 C 15,0 C 87 % 1013,5 hPa 0,2 l/m 0 min 2 min 100 W/m 16,1 km/h (3 Bft) 97,87 %
20.05.2022 16:52 21,3 C 20,6 C 15,6 C 87 % 1013,5 hPa 0,0 l/m 0 min 2 min 126 W/m 12,9 km/h (3 Bft) 97,87 %
20.05.2022 16:54 21,3 C 20,6 C 15,6 C 88 % 1013,5 hPa 0,0 l/m 0 min 2 min 160 W/m 12,9 km/h (3 Bft) 97,87 %
20.05.2022 16:56 21,3 C 20,6 C 15,6 C 88 % 1013,5 hPa 0,0 l/m 0 min 2 min 174 W/m 12,9 km/h (3 Bft) 97,83 %
20.05.2022 16:58 21,3 C 20,6 C 15,6 C 88 % 1013,5 hPa 0,0 l/m 0 min 2 min 153 W/m 12,9 km/h (3 Bft) 97,87 %
20.05.2022 17:00 21,2 C 20,6 C 15,6 C 88 % 1013,2 hPa 0,0 l/m 0 min 0 min 154 W/m 16,1 km/h (3 Bft) 97,87 %
20.05.2022 17:02 21,2 C 20,6 C 15,6 C 88 % 1013,2 hPa 0,0 l/m 0 min 0 min 143 W/m 6,4 km/h (2 Bft) 95,74 %
20.05.2022 17:04 21,2 C 20,6 C 15,6 C 89 % 1013,2 hPa 0,0 l/m 0 min 0 min 125 W/m 9,7 km/h (2 Bft) 97,87 %
20.05.2022 17:06 21,2 C 20,6 C 15,6 C 88 % 1013,3 hPa 0,0 l/m 0 min 0 min 101 W/m 12,9 km/h (3 Bft) 95,74 %
20.05.2022 17:08 21,2 C 20,6 C 15,6 C 88 % 1013,4 hPa 0,0 l/m 0 min 0 min 102 W/m 12,9 km/h (3 Bft) 95,65 %
20.05.2022 17:10 21,1 C 20,6 C 15,0 C 88 % 1013,5 hPa 0,0 l/m 0 min 0 min 114 W/m 12,9 km/h (3 Bft) 95,74 %
20.05.2022 17:12 21,1 C 20,6 C 15,0 C 88 % 1013,6 hPa 0,0 l/m 0 min 0 min 107 W/m 6,4 km/h (2 Bft) 97,87 %
20.05.2022 17:14 21,1 C 20,6 C 15,0 C 87 % 1013,7 hPa 0,0 l/m 0 min 0 min 72 W/m 12,9 km/h (3 Bft) 95,74 %
20.05.2022 17:16 21,1 C 20,6 C 15,0 C 88 % 1013,8 hPa 0,0 l/m 0 min 0 min 42 W/m 12,9 km/h (3 Bft) 95,74 %
20.05.2022 17:18 21,1 C 20,6 C 15,0 C 88 % 1013,8 hPa 0,0 l/m 0 min 0 min 47 W/m 35,4 km/h (5 Bft) 93,48 %
20.05.2022 17:20 20,9 C 20,0 C 14,4 C 86 % 1013,8 hPa 0,0 l/m 0 min 0 min 53 W/m 25,7 km/h (4 Bft) 93,62 %
20.05.2022 17:22 20,8 C 20,0 C 14,4 C 86 % 1013,9 hPa 0,0 l/m 0 min 0 min 55 W/m 25,7 km/h (4 Bft) 93,62 %
20.05.2022 17:24 20,7 C 20,0 C 14,4 C 85 % 1013,9 hPa 0,0 l/m 0 min 0 min 54 W/m 32,2 km/h (5 Bft) 93,62 %
20.05.2022 17:26 20,6 C 20,0 C 14,4 C 85 % 1013,9 hPa 0,0 l/m 0 min 0 min 47 W/m 32,2 km/h (5 Bft) 95,74 %
20.05.2022 17:28 20,6 C 20,0 C 14,4 C 85 % 1014,0 hPa 0,0 l/m 0 min 0 min 39 W/m 19,3 km/h (3 Bft) 95,74 %
20.05.2022 17:30 20,6 C 19,4 C 14,4 C 86 % 1014,0 hPa 0,0 l/m 0 min 0 min 32 W/m 25,7 km/h (4 Bft) 95,65 %
20.05.2022 17:32 20,4 C 19,4 C 14,4 C 85 % 1014,1 hPa 0,0 l/m 0 min 0 min 24 W/m 22,5 km/h (4 Bft) 97,87 %
20.05.2022 17:34 20,4 C 19,4 C 15,0 C 86 % 1014,1 hPa 0,0 l/m 0 min 0 min 18 W/m 22,5 km/h (4 Bft) 97,87 %
20.05.2022 17:36 20,3 C 19,4 C 15,0 C 86 % 1014,0 hPa 0,0 l/m 0 min 0 min 17 W/m 29,0 km/h (5 Bft) 97,87 %
20.05.2022 17:38 20,2 C 19,4 C 15,0 C 85 % 1014,0 hPa 0,0 l/m 0 min 0 min 18 W/m 32,2 km/h (5 Bft) 95,74 %
20.05.2022 17:40 20,2 C 19,4 C 15,0 C 86 % 1014,1 hPa 0,0 l/m 0 min 2 min 18 W/m 29,0 km/h (5 Bft) 97,87 %
20.05.2022 17:42 20,1 C 18,9 C 15,0 C 86 % 1014,1 hPa 0,0 l/m 0 min 2 min 19 W/m 19,3 km/h (3 Bft) 91,30 %
20.05.2022 17:44 20,1 C 18,9 C 15,0 C 86 % 1014,0 hPa 0,0 l/m 0 min 2 min 22 W/m 29,0 km/h (5 Bft) 89,36 %
20.05.2022 17:46 20,0 C 18,9 C 14,4 C 87 % 1014,1 hPa 0,2 l/m 0 min 2 min 32 W/m 16,1 km/h (3 Bft) 95,74 %
20.05.2022 17:48 19,8 C 17,8 C 13,9 C 88 % 1014,0 hPa 0,2 l/m 0 min 2 min 43 W/m 35,4 km/h (5 Bft) 93,62 %
20.05.2022 17:50 19,7 C 17,2 C 13,9 C 89 % 1014,1 hPa 0,2 l/m 0 min 2 min 44 W/m 35,4 km/h (5 Bft) 97,87 %
20.05.2022 17:52 19,5 C 17,2 C 13,9 C 89 % 1014,0 hPa 0,0 l/m 0 min 2 min 44 W/m 19,3 km/h (3 Bft) 97,87 %
20.05.2022 17:54 19,4 C 17,2 C 13,9 C 90 % 1014,1 hPa 0,0 l/m 0 min 0 min 62 W/m 22,5 km/h (4 Bft) 95,65 %
20.05.2022 17:56 19,3 C 17,8 C 13,9 C 91 % 1014,1 hPa 0,0 l/m 0 min 2 min 81 W/m 22,5 km/h (4 Bft) 97,87 %
20.05.2022 17:58 19,2 C 17,8 C 13,9 C 91 % 1013,9 hPa 0,0 l/m 0 min 2 min 98 W/m 19,3 km/h (3 Bft) 97,87 %
20.05.2022 18:00 19,1 C 17,8 C 13,9 C 91 % 1013,8 hPa 0,0 l/m 0 min 2 min 112 W/m 22,5 km/h (4 Bft) 100,00 %
20.05.2022 18:02 19,0 C 17,8 C 13,9 C 91 % 1013,7 hPa 0,2 l/m 0 min 2 min 126 W/m 35,4 km/h (5 Bft) 95,74 %
20.05.2022 18:04 18,9 C 17,8 C 13,9 C 92 % 1013,8 hPa 0,0 l/m 0 min 0 min 154 W/m 32,2 km/h (5 Bft) 95,74 %
20.05.2022 18:07 18,8 C 17,8 C 13,3 C 92 % 1013,6 hPa 0,0 l/m 0 min 0 min 122 W/m 54,7 km/h (7 Bft) 98,57 %
20.05.2022 18:08 18,8 C 17,8 C 13,3 C 92 % 1013,6 hPa 0,0 l/m 0 min 0 min 82 W/m 29,0 km/h (5 Bft) 100,00 %
20.05.2022 18:10 18,8 C 17,8 C 13,9 C 92 % 1013,5 hPa 0,0 l/m 0 min 0 min 67 W/m 22,5 km/h (4 Bft) 100,00 %
20.05.2022 18:12 18,8 C 17,8 C 13,3 C 92 % 1013,6 hPa 0,0 l/m 0 min 0 min 64 W/m 12,9 km/h (3 Bft) 97,87 %
20.05.2022 18:14 18,8 C 17,8 C 13,9 C 92 % 1013,5 hPa 0,0 l/m 0 min 0 min 71 W/m 35,4 km/h (5 Bft) 96,00 %
20.05.2022 18:16 18,8 C 17,8 C 13,9 C 92 % 1013,5 hPa 0,0 l/m 0 min 0 min 80 W/m 16,1 km/h (3 Bft) 100,00 %
20.05.2022 18:18 18,8 C 17,8 C 13,9 C 92 % 1013,6 hPa 0,0 l/m 0 min 0 min 87 W/m 22,5 km/h (4 Bft) 100,00 %
20.05.2022 18:20 18,8 C 17,8 C 13,9 C 92 % 1013,6 hPa 0,0 l/m 0 min 0 min 103 W/m 25,7 km/h (4 Bft) 100,00 %
20.05.2022 18:22 18,8 C 18,3 C 13,9 C 92 % 1013,5 hPa 0,0 l/m 0 min 0 min 119 W/m 16,1 km/h (3 Bft) 100,00 %
20.05.2022 18:24 18,8 C 18,3 C 13,9 C 92 % 1013,6 hPa 0,0 l/m 0 min 0 min 144 W/m 19,3 km/h (3 Bft) 96,36 %
20.05.2022 18:26 18,9 C 18,9 C 13,9 C 93 % 1013,6 hPa 0,0 l/m 0 min 0 min 172 W/m 29,0 km/h (5 Bft) 97,87 %
20.05.2022 18:28 19,0 C 20,0 C 14,4 C 93 % 1013,6 hPa 0,0 l/m 2 min 0 min 391 W/m 25,7 km/h (4 Bft) 97,87 %
20.05.2022 18:30 19,1 C 21,1 C 14,4 C 93 % 1013,7 hPa 0,0 l/m 2 min 0 min 544 W/m 22,5 km/h (4 Bft) 97,83 %
20.05.2022 18:32 19,2 C 20,6 C 14,4 C 93 % 1013,7 hPa 0,0 l/m 2 min 0 min 437 W/m 16,1 km/h (3 Bft) 97,87 %
20.05.2022 18:34 19,3 C 20,6 C 14,4 C 93 % 1013,7 hPa 0,0 l/m 2 min 0 min 227 W/m 19,3 km/h (3 Bft) 93,62 %
20.05.2022 18:36 19,4 C 20,0 C 14,4 C 93 % 1013,8 hPa 0,0 l/m 2 min 0 min 206 W/m 22,5 km/h (4 Bft) 97,87 %
20.05.2022 18:38 19,4 C 19,4 C 14,4 C 93 % 1013,8 hPa 0,0 l/m 0 min 0 min 173 W/m 12,9 km/h (3 Bft) 97,87 %
20.05.2022 18:40 19,4 C 20,0 C 14,4 C 93 % 1013,7 hPa 0,0 l/m 2 min 0 min 263 W/m 16,1 km/h (3 Bft) 97,87 %
20.05.2022 18:42 19,4 C 19,4 C 14,4 C 92 % 1013,7 hPa 0,0 l/m 0 min 0 min 179 W/m 19,3 km/h (3 Bft) 97,83 %
20.05.2022 18:44 19,5 C 19,4 C 14,4 C 92 % 1013,9 hPa 0,0 l/m 0 min 0 min 110 W/m 16,1 km/h (3 Bft) 95,74 %
20.05.2022 18:46 19,5 C 18,9 C 14,4 C 92 % 1013,9 hPa 0,0 l/m 0 min 0 min 100 W/m 25,7 km/h (4 Bft) 97,87 %
20.05.2022 18:48 19,4 C 18,9 C 13,9 C 92 % 1014,2 hPa 0,0 l/m 0 min 0 min 103 W/m 29,0 km/h (5 Bft) 93,62 %
20.05.2022 18:50 19,4 C 18,9 C 14,4 C 91 % 1014,2 hPa 0,0 l/m 0 min 0 min 74 W/m 16,1 km/h (3 Bft) 95,74 %
20.05.2022 18:52 19,3 C 18,9 C 13,9 C 91 % 1014,1 hPa 0,0 l/m 0 min 0 min 57 W/m 22,5 km/h (4 Bft) 95,74 %
20.05.2022 18:54 19,3 C 18,9 C 13,9 C 90 % 1014,3 hPa 0,0 l/m 0 min 0 min 59 W/m 29,0 km/h (5 Bft) 95,65 %
20.05.2022 18:56 19,3 C 18,9 C 13,9 C 90 % 1014,4 hPa 0,0 l/m 0 min 0 min 71 W/m 19,3 km/h (3 Bft) 95,74 %
20.05.2022 18:58 19,3 C 18,9 C 13,9 C 90 % 1014,4 hPa 0,0 l/m 0 min 0 min 68 W/m 16,1 km/h (3 Bft) 95,74 %
20.05.2022 19:00 19,3 C 19,4 C 13,9 C 90 % 1014,4 hPa 0,0 l/m 0 min 0 min 70 W/m 19,3 km/h (3 Bft) 95,74 %
20.05.2022 19:02 19,3 C 19,4 C 13,9 C 90 % 1014,5 hPa 0,0 l/m 0 min 0 min 149 W/m 19,3 km/h (3 Bft) 93,62 %
20.05.2022 19:04 19,3 C 18,9 C 13,9 C 89 % 1014,6 hPa 0,0 l/m 2 min 0 min 167 W/m 32,2 km/h (5 Bft) 93,62 %
20.05.2022 19:06 19,2 C 18,9 C 13,3 C 87 % 1014,6 hPa 0,0 l/m 0 min 0 min 103 W/m 29,0 km/h (5 Bft) 91,30 %
20.05.2022 19:08 19,1 C 18,3 C 12,8 C 86 % 1014,6 hPa 0,0 l/m 0 min 0 min 80 W/m 29,0 km/h (5 Bft) 89,36 %
20.05.2022 19:10 18,9 C 18,9 C 12,8 C 86 % 1014,8 hPa 0,0 l/m 0 min 0 min 84 W/m 25,7 km/h (4 Bft) 78,72 %
20.05.2022 19:12 18,8 C 19,4 C 12,8 C 86 % 1015,0 hPa 0,0 l/m 2 min 0 min 180 W/m 41,8 km/h (6 Bft) 89,36 %
20.05.2022 19:14 18,8 C 18,9 C 13,3 C 86 % 1014,7 hPa 0,0 l/m 2 min 0 min 321 W/m 22,5 km/h (4 Bft) 93,62 %
20.05.2022 19:16 18,8 C 18,9 C 13,3 C 86 % 1015,0 hPa 0,0 l/m 0 min 0 min 79 W/m 22,5 km/h (4 Bft) 91,49 %
20.05.2022 19:18 18,8 C 18,3 C 12,8 C 86 % 1015,0 hPa 0,0 l/m 0 min 0 min 68 W/m 25,7 km/h (4 Bft) 93,48 %
20.05.2022 19:20 18,7 C 17,8 C 12,8 C 86 % 1015,1 hPa 0,0 l/m 0 min 0 min 90 W/m 32,2 km/h (5 Bft) 93,62 %
20.05.2022 19:22 18,6 C 17,8 C 12,8 C 86 % 1015,3 hPa 0,0 l/m 0 min 0 min 137 W/m 32,2 km/h (5 Bft) 85,11 %
20.05.2022 19:24 18,4 C 17,8 C 12,8 C 86 % 1015,3 hPa 0,0 l/m 0 min 0 min 89 W/m 32,2 km/h (5 Bft) 91,49 %
20.05.2022 19:26 18,2 C 17,2 C 12,8 C 86 % 1015,3 hPa 0,0 l/m 0 min 0 min 67 W/m 32,2 km/h (5 Bft) 87,23 %
20.05.2022 19:28 18,0 C 17,2 C 12,8 C 86 % 1015,5 hPa 0,0 l/m 0 min 0 min 68 W/m 22,5 km/h (4 Bft) 100,00 %
20.05.2022 19:30 17,9 C 17,2 C 12,8 C 86 % 1015,5 hPa 0,0 l/m 0 min 0 min 48 W/m 19,3 km/h (3 Bft) 100,00 %
20.05.2022 19:32 17,8 C 17,2 C 13,3 C 86 % 1015,6 hPa 0,0 l/m 0 min 0 min 67 W/m 16,1 km/h (3 Bft) 100,00 %
20.05.2022 19:34 17,7 C 16,7 C 13,3 C 86 % 1015,8 hPa 0,0 l/m 0 min 0 min 92 W/m 32,2 km/h (5 Bft) 100,00 %
20.05.2022 19:36 17,6 C 17,2 C 13,3 C 85 % 1015,7 hPa 0,0 l/m 0 min 0 min 116 W/m 25,7 km/h (4 Bft) 100,00 %
20.05.2022 19:38 17,4 C 17,2 C 13,3 C 86 % 1015,7 hPa 0,0 l/m 0 min 0 min 111 W/m 19,3 km/h (3 Bft) 97,87 %
20.05.2022 19:40 17,4 C 16,7 C 13,3 C 86 % 1015,7 hPa 0,0 l/m 0 min 0 min 84 W/m 16,1 km/h (3 Bft) 100,00 %
20.05.2022 19:42 17,3 C 16,7 C 13,3 C 86 % 1015,8 hPa 0,0 l/m 0 min 0 min 51 W/m 25,7 km/h (4 Bft) 100,00 %
20.05.2022 19:44 17,3 C 16,7 C 13,3 C 86 % 1015,8 hPa 0,0 l/m 0 min 0 min 31 W/m 22,5 km/h (4 Bft) 100,00 %
20.05.2022 19:46 17,2 C 16,7 C 13,3 C 86 % 1015,9 hPa 0,0 l/m 0 min 0 min 22 W/m 16,1 km/h (3 Bft) 100,00 %
20.05.2022 19:48 17,1 C 16,1 C 13,3 C 86 % 1015,9 hPa 0,0 l/m 0 min 0 min 22 W/m 22,5 km/h (4 Bft) 100,00 %
20.05.2022 19:50 17,0 C 16,1 C 13,3 C 86 % 1015,9 hPa 0,0 l/m 0 min 0 min 32 W/m 19,3 km/h (3 Bft) 100,00 %
20.05.2022 19:52 16,9 C 16,1 C 13,3 C 86 % 1016,1 hPa 0,0 l/m 0 min 0 min 34 W/m 25,7 km/h (4 Bft) 100,00 %
20.05.2022 19:54 16,8 C 16,1 C 13,3 C 87 % 1016,2 hPa 0,0 l/m 0 min 0 min 26 W/m 25,7 km/h (4 Bft) 97,87 %
20.05.2022 19:56 16,7 C 16,1 C 12,8 C 87 % 1016,2 hPa 0,0 l/m 0 min 0 min 22 W/m 22,5 km/h (4 Bft) 100,00 %
20.05.2022 19:58 16,6 C 16,1 C 12,8 C 86 % 1016,3 hPa 0,0 l/m 0 min 0 min 24 W/m 25,7 km/h (4 Bft) 100,00 %
20.05.2022 20:00 16,4 C 16,1 C 12,8 C 85 % 1016,2 hPa 0,0 l/m 0 min 0 min 30 W/m 22,5 km/h (4 Bft) 97,87 %
20.05.2022 20:02 16,3 C 15,6 C 12,8 C 86 % 1016,3 hPa 0,0 l/m 0 min 0 min 27 W/m 22,5 km/h (4 Bft) 97,87 %
20.05.2022 20:04 16,3 C 15,6 C 12,8 C 86 % 1016,3 hPa 0,0 l/m 0 min 0 min 27 W/m 19,3 km/h (3 Bft) 97,83 %
20.05.2022 20:06 16,3 C 15,6 C 12,8 C 86 % 1016,5 hPa 0,0 l/m 0 min 0 min 27 W/m 16,1 km/h (3 Bft) 97,87 %
20.05.2022 20:08 16,2 C 15,6 C 12,8 C 86 % 1016,4 hPa 0,0 l/m 0 min 0 min 21 W/m 25,7 km/h (4 Bft) 97,87 %
20.05.2022 20:10 16,2 C 15,6 C 12,8 C 86 % 1016,4 hPa 0,0 l/m 0 min 0 min 19 W/m 29,0 km/h (5 Bft) 95,74 %
20.05.2022 20:12 16,1 C 15,6 C 12,2 C 86 % 1016,5 hPa 0,0 l/m 0 min 0 min 16 W/m 22,5 km/h (4 Bft) 95,74 %
20.05.2022 20:14 16,0 C 15,6 C 12,2 C 86 % 1016,6 hPa 0,0 l/m 0 min 0 min 9 W/m 16,1 km/h (3 Bft) 95,74 %
20.05.2022 20:16 15,9 C 15,6 C 12,8 C 87 % 1016,7 hPa 0,0 l/m 0 min 0 min 5 W/m 12,9 km/h (3 Bft) 97,83 %
20.05.2022 20:18 15,9 C 15,6 C 12,2 C 86 % 1016,6 hPa 0,0 l/m 0 min 0 min 9 W/m 22,5 km/h (4 Bft) 97,87 %
20.05.2022 20:20 15,8 C 15,0 C 12,2 C 86 % 1016,8 hPa 0,0 l/m 0 min 0 min 9 W/m 19,3 km/h (3 Bft) 97,87 %
20.05.2022 20:22 15,8 C 15,0 C 12,2 C 86 % 1016,8 hPa 0,0 l/m 0 min 0 min 5 W/m 19,3 km/h (3 Bft) 97,87 %
20.05.2022 20:24 15,7 C 15,0 C 12,2 C 87 % 1016,8 hPa 0,0 l/m 0 min 0 min 5 W/m 16,1 km/h (3 Bft) 97,87 %
20.05.2022 20:26 15,7 C 15,0 C 12,2 C 87 % 1016,9 hPa 0,0 l/m 0 min 0 min 5 W/m 19,3 km/h (3 Bft) 97,87 %
20.05.2022 20:28 15,7 C 15,0 C 12,2 C 87 % 1016,9 hPa 0,0 l/m 0 min 0 min 7 W/m 22,5 km/h (4 Bft) 97,83 %
20.05.2022 20:30 15,7 C 15,0 C 12,2 C 87 % 1017,0 hPa 0,0 l/m 0 min 0 min 10 W/m 12,9 km/h (3 Bft) 95,74 %
20.05.2022 20:32 15,7 C 15,0 C 12,2 C 87 % 1017,1 hPa 0,0 l/m 0 min 0 min 14 W/m 16,1 km/h (3 Bft) 97,87 %
20.05.2022 20:34 15,7 C 15,0 C 12,2 C 87 % 1017,1 hPa 0,0 l/m 0 min 0 min 16 W/m 12,9 km/h (3 Bft) 97,87 %
20.05.2022 20:36 15,7 C 15,0 C 12,2 C 87 % 1017,1 hPa 0,0 l/m 0 min 0 min 12 W/m 19,3 km/h (3 Bft) 93,62 %
20.05.2022 20:38 15,7 C 15,0 C 12,2 C 88 % 1017,1 hPa 0,0 l/m 0 min 0 min 11 W/m 16,1 km/h (3 Bft) 97,87 %
20.05.2022 20:40 15,7 C 15,6 C 12,2 C 88 % 1017,1 hPa 0,0 l/m 0 min 0 min 16 W/m 16,1 km/h (3 Bft) 97,83 %
20.05.2022 20:42 15,8 C 15,0 C 12,2 C 88 % 1017,1 hPa 0,0 l/m 0 min 0 min 28 W/m 16,1 km/h (3 Bft) 95,74 %
20.05.2022 20:44 15,7 C 15,0 C 12,2 C 88 % 1017,2 hPa 0,0 l/m 2 min 0 min 42 W/m 16,1 km/h (3 Bft) 95,74 %
20.05.2022 20:46 15,7 C 15,6 C 12,2 C 87 % 1017,2 hPa 0,0 l/m 2 min 0 min 53 W/m 19,3 km/h (3 Bft) 93,62 %
20.05.2022 20:48 15,7 C 15,6 C 12,2 C 87 % 1017,2 hPa 0,0 l/m 2 min 0 min 39 W/m 19,3 km/h (3 Bft) 93,62 %
20.05.2022 20:50 15,6 C 15,0 C 12,2 C 87 % 1017,2 hPa 0,0 l/m 0 min 0 min 26 W/m 22,5 km/h (4 Bft) 97,87 %
20.05.2022 20:52 15,6 C 15,0 C 12,2 C 86 % 1017,3 hPa 0,0 l/m 0 min 0 min 18 W/m 19,3 km/h (3 Bft) 95,65 %
20.05.2022 20:54 15,6 C 15,0 C 12,2 C 86 % 1017,3 hPa 0,0 l/m 0 min 0 min 15 W/m 19,3 km/h (3 Bft) 95,74 %
20.05.2022 20:56 15,5 C 15,0 C 12,2 C 86 % 1017,5 hPa 0,0 l/m 0 min 0 min 11 W/m 16,1 km/h (3 Bft) 97,87 %
20.05.2022 20:58 15,5 C 15,0 C 12,2 C 86 % 1017,5 hPa 0,0 l/m 0 min 0 min 7 W/m 22,5 km/h (4 Bft) 95,74 %
20.05.2022 21:00 15,4 C 15,0 C 12,2 C 86 % 1017,4 hPa 0,0 l/m 0 min 0 min 5 W/m 19,3 km/h (3 Bft) 95,74 %
20.05.2022 21:02 15,4 C 15,0 C 12,2 C 86 % 1017,4 hPa 0,0 l/m 0 min 0 min 5 W/m 16,1 km/h (3 Bft) 97,87 %
20.05.2022 21:04 15,4 C 15,0 C 12,2 C 86 % 1017,5 hPa 0,0 l/m 0 min 0 min 1 W/m 16,1 km/h (3 Bft) 95,65 %
20.05.2022 21:06 15,3 C 15,0 C 12,2 C 85 % 1017,4 hPa 0,0 l/m 0 min 0 min 0 W/m 16,1 km/h (3 Bft) 97,87 %
20.05.2022 21:08 15,3 C 15,0 C 11,7 C 85 % 1017,4 hPa 0,0 l/m 0 min 0 min 0 W/m 19,3 km/h (3 Bft) 93,62 %
20.05.2022 21:10 15,3 C 15,0 C 11,7 C 85 % 1017,3 hPa 0,0 l/m 0 min 0 min 0 W/m 9,7 km/h (2 Bft) 97,87 %
20.05.2022 21:12 15,3 C 15,0 C 11,7 C 86 % 1017,4 hPa 0,0 l/m 0 min 0 min 0 W/m 16,1 km/h (3 Bft) 97,87 %
20.05.2022 21:14 15,3 C 15,0 C 11,7 C 86 % 1017,4 hPa 0,0 l/m 0 min 0 min 0 W/m 19,3 km/h (3 Bft) 97,87 %
20.05.2022 21:16 15,3 C 14,4 C 11,7 C 85 % 1017,4 hPa 0,0 l/m 0 min 0 min 0 W/m 16,1 km/h (3 Bft) 97,83 %
20.05.2022 21:18 15,3 C 14,4 C 11,7 C 86 % 1017,5 hPa 0,0 l/m 0 min 0 min 0 W/m 12,9 km/h (3 Bft) 97,87 %
20.05.2022 21:20 15,2 C 14,4 C 11,7 C 86 % 1017,8 hPa 0,0 l/m 0 min 0 min 0 W/m 16,1 km/h (3 Bft) 95,74 %
20.05.2022 21:22 15,2 C 14,4 C 11,7 C 86 % 1017,7 hPa 0,0 l/m 0 min 0 min 0 W/m 16,1 km/h (3 Bft) 97,87 %
20.05.2022 21:24 15,2 C 14,4 C 11,7 C 86 % 1017,6 hPa 0,0 l/m 0 min 0 min 0 W/m 22,5 km/h (4 Bft) 97,87 %
20.05.2022 21:26 15,2 C 14,4 C 11,7 C 86 % 1017,6 hPa 0,0 l/m 0 min 0 min 0 W/m 16,1 km/h (3 Bft) 97,87 %
20.05.2022 21:28 15,2 C 14,4 C 11,7 C 86 % 1017,7 hPa 0,0 l/m 0 min 0 min 0 W/m 16,1 km/h (3 Bft) 97,83 %
20.05.2022 21:30 15,2 C 14,4 C 11,7 C 86 % 1017,7 hPa 0,0 l/m 0 min 0 min 0 W/m 12,9 km/h (3 Bft) 97,87 %
20.05.2022 21:32 15,2 C 14,4 C 11,7 C 86 % 1017,7 hPa 0,0 l/m 0 min 0 min 0 W/m 12,9 km/h (3 Bft) 95,74 %
20.05.2022 21:34 15,1 C 14,4 C 11,7 C 86 % 1017,8 hPa 0,0 l/m 0 min 0 min 0 W/m 12,9 km/h (3 Bft) 97,87 %
20.05.2022 21:36 15,1 C 14,4 C 11,7 C 86 % 1017,9 hPa 0,0 l/m 0 min 0 min 0 W/m 22,5 km/h (4 Bft) 97,87 %
20.05.2022 21:38 15,1 C 14,4 C 11,7 C 86 % 1017,9 hPa 0,0 l/m 0 min 0 min 0 W/m 19,3 km/h (3 Bft) 95,74 %
20.05.2022 21:40 15,0 C 14,4 C 11,7 C 86 % 1017,9 hPa 0,0 l/m 0 min 0 min 0 W/m 19,3 km/h (3 Bft) 97,83 %
20.05.2022 21:42 14,9 C 14,4 C 11,7 C 86 % 1018,0 hPa 0,0 l/m 0 min 0 min 0 W/m 19,3 km/h (3 Bft) 95,74 %
20.05.2022 21:44 14,9 C 14,4 C 11,7 C 86 % 1018,1 hPa 0,0 l/m 0 min 0 min 0 W/m 6,4 km/h (2 Bft) 97,87 %
20.05.2022 21:46 14,9 C 14,4 C 11,7 C 86 % 1018,1 hPa 0,0 l/m 0 min 0 min 0 W/m 12,9 km/h (3 Bft) 97,87 %
20.05.2022 21:48 14,8 C 13,9 C 11,1 C 86 % 1018,2 hPa 0,0 l/m 0 min 0 min 0 W/m 19,3 km/h (3 Bft) 97,87 %
20.05.2022 21:50 14,8 C 13,9 C 11,1 C 86 % 1018,3 hPa 0,0 l/m 0 min 0 min 0 W/m 6,4 km/h (2 Bft) 95,74 %
20.05.2022 21:52 14,8 C 13,9 C 11,1 C 87 % 1018,3 hPa 0,0 l/m 0 min 0 min 0 W/m 12,9 km/h (3 Bft) 97,83 %
20.05.2022 21:54 14,8 C 13,9 C 11,1 C 87 % 1018,3 hPa 0,0 l/m 0 min 0 min 0 W/m 12,9 km/h (3 Bft) 97,87 %
20.05.2022 21:56 14,7 C 13,9 C 11,1 C 87 % 1018,4 hPa 0,0 l/m 0 min 0 min 0 W/m 9,7 km/h (2 Bft) 97,87 %
20.05.2022 21:58 14,7 C 13,9 C 11,1 C 87 % 1018,4 hPa 0,0 l/m 0 min 0 min 0 W/m 12,9 km/h (3 Bft) 95,74 %
20.05.2022 22:00 14,7 C 13,9 C 11,1 C 87 % 1018,5 hPa 0,0 l/m 0 min 0 min 0 W/m 22,5 km/h (4 Bft) 97,87 %
20.05.2022 22:02 14,6 C 13,9 C 11,1 C 87 % 1018,5 hPa 0,0 l/m 0 min 0 min 0 W/m 16,1 km/h (3 Bft) 95,74 %
20.05.2022 22:04 14,6 C 13,9 C 11,1 C 87 % 1018,5 hPa 0,0 l/m 0 min 0 min 0 W/m 6,4 km/h (2 Bft) 97,83 %
20.05.2022 22:06 14,6 C 13,9 C 11,1 C 87 % 1018,6 hPa 0,0 l/m 0 min 0 min 0 W/m 16,1 km/h (3 Bft) 97,87 %
20.05.2022 22:08 14,6 C 13,9 C 11,1 C 87 % 1018,6 hPa 0,0 l/m 0 min 0 min 0 W/m 12,9 km/h (3 Bft) 100,00 %
20.05.2022 22:10 14,5 C 13,9 C 11,1 C 87 % 1018,6 hPa 0,0 l/m 0 min 0 min 0 W/m 16,1 km/h (3 Bft) 100,00 %
20.05.2022 22:12 14,5 C 13,9 C 11,1 C 88 % 1018,6 hPa 0,0 l/m 0 min 0 min 0 W/m 16,1 km/h (3 Bft) 97,87 %
20.05.2022 22:14 14,4 C 13,9 C 11,1 C 88 % 1018,8 hPa 0,0 l/m 0 min 0 min 0 W/m 19,3 km/h (3 Bft) 100,00 %
20.05.2022 22:16 14,4 C 13,9 C 11,1 C 88 % 1018,9 hPa 0,0 l/m 0 min 0 min 0 W/m 19,3 km/h (3 Bft) 100,00 %
20.05.2022 22:18 14,3 C 13,9 C 11,1 C 88 % 1019,0 hPa 0,0 l/m 0 min 0 min 0 W/m 16,1 km/h (3 Bft) 97,87 %
20.05.2022 22:20 14,3 C 13,9 C 11,1 C 87 % 1019,0 hPa 0,0 l/m 0 min 0 min 0 W/m 19,3 km/h (3 Bft) 100,00 %
20.05.2022 22:22 14,3 C 13,9 C 11,1 C 87 % 1019,0 hPa 0,0 l/m 0 min 0 min 0 W/m 12,9 km/h (3 Bft) 100,00 %
20.05.2022 22:24 14,3 C 13,9 C 11,1 C 87 % 1019,0 hPa 0,0 l/m 0 min 0 min 0 W/m 19,3 km/h (3 Bft) 100,00 %
20.05.2022 22:26 14,3 C 13,9 C 11,1 C 87 % 1019,0 hPa 0,0 l/m 0 min 0 min 0 W/m 25,7 km/h (4 Bft) 100,00 %
20.05.2022 22:28 14,3 C 13,9 C 11,1 C 86 % 1019,1 hPa 0,0 l/m 0 min 0 min 0 W/m 16,1 km/h (3 Bft) 100,00 %
20.05.2022 22:30 14,3 C 13,9 C 11,1 C 86 % 1019,1 hPa 0,0 l/m 0 min 0 min 0 W/m 19,3 km/h (3 Bft) 97,87 %
20.05.2022 22:32 14,3 C 13,9 C 11,1 C 86 % 1019,2 hPa 0,0 l/m 0 min 0 min 0 W/m 22,5 km/h (4 Bft) 95,74 %
20.05.2022 22:34 14,3 C 13,9 C 11,1 C 85 % 1019,2 hPa 0,0 l/m 0 min 0 min 0 W/m 32,2 km/h (5 Bft) 97,87 %
20.05.2022 22:36 14,3 C 13,9 C 11,1 C 84 % 1019,3 hPa 0,0 l/m 0 min 0 min 0 W/m 19,3 km/h (3 Bft) 97,87 %
20.05.2022 22:38 14,3 C 13,9 C 11,1 C 84 % 1019,3 hPa 0,0 l/m 0 min 0 min 0 W/m 16,1 km/h (3 Bft) 95,74 %
20.05.2022 22:40 14,3 C 13,9 C 11,1 C 84 % 1019,3 hPa 0,0 l/m 0 min 0 min 0 W/m 19,3 km/h (3 Bft) 95,65 %
20.05.2022 22:42 14,3 C 13,9 C 11,1 C 84 % 1019,3 hPa 0,0 l/m 0 min 0 min 0 W/m 16,1 km/h (3 Bft) 95,74 %
20.05.2022 22:44 14,3 C 13,9 C 11,1 C 84 % 1019,3 hPa 0,0 l/m 0 min 0 min 0 W/m 16,1 km/h (3 Bft) 97,87 %
20.05.2022 22:46 14,3 C 13,9 C 11,1 C 84 % 1019,3 hPa 0,0 l/m 0 min 0 min 0 W/m 19,3 km/h (3 Bft) 95,74 %
20.05.2022 22:48 14,3 C 13,9 C 11,1 C 83 % 1019,4 hPa 0,0 l/m 0 min 0 min 0 W/m 19,3 km/h (3 Bft) 97,87 %
20.05.2022 22:50 14,2 C 13,3 C 10,6 C 82 % 1019,3 hPa 0,0 l/m 0 min 0 min 0 W/m 25,7 km/h (4 Bft) 95,65 %
20.05.2022 22:52 14,1 C 13,3 C 10,6 C 82 % 1019,4 hPa 0,0 l/m 0 min 0 min 0 W/m 12,9 km/h (3 Bft) 91,49 %
20.05.2022 22:54 14,1 C 13,3 C 10,6 C 82 % 1019,4 hPa 0,0 l/m 0 min 0 min 0 W/m 19,3 km/h (3 Bft) 97,87 %
20.05.2022 22:56 14,1 C 13,3 C 10,6 C 82 % 1019,5 hPa 0,0 l/m 0 min 0 min 0 W/m 12,9 km/h (3 Bft) 95,74 %
20.05.2022 22:58 13,9 C 13,3 C 10,6 C 81 % 1019,5 hPa 0,0 l/m 0 min 0 min 0 W/m 19,3 km/h (3 Bft) 95,74 %
20.05.2022 23:00 13,9 C 13,3 C 10,6 C 81 % 1019,5 hPa 0,0 l/m 0 min 0 min 0 W/m 12,9 km/h (3 Bft) 95,74 %
20.05.2022 23:02 13,9 C 13,3 C 10,6 C 81 % 1019,5 hPa 0,0 l/m 0 min 0 min 0 W/m 12,9 km/h (3 Bft) 93,62 %
20.05.2022 23:04 13,8 C 13,3 C 10,6 C 81 % 1019,6 hPa 0,0 l/m 0 min 0 min 0 W/m 9,7 km/h (2 Bft) 97,83 %
20.05.2022 23:06 13,8 C 13,3 C 10,6 C 82 % 1019,6 hPa 0,0 l/m 0 min 0 min 0 W/m 12,9 km/h (3 Bft) 95,74 %
20.05.2022 23:08 13,8 C 13,3 C 10,6 C 82 % 1019,6 hPa 0,0 l/m 0 min 0 min 0 W/m 12,9 km/h (3 Bft) 97,87 %
20.05.2022 23:10 13,7 C 13,3 C 10,6 C 82 % 1019,6 hPa 0,0 l/m 0 min 0 min 0 W/m 12,9 km/h (3 Bft) 97,87 %
20.05.2022 23:12 13,7 C 13,3 C 10,6 C 82 % 1019,6 hPa 0,0 l/m 0 min 0 min 0 W/m 12,9 km/h (3 Bft) 97,87 %
20.05.2022 23:14 13,7 C 12,8 C 10,6 C 83 % 1019,6 hPa 0,0 l/m 0 min 0 min 0 W/m 22,5 km/h (4 Bft) 97,83 %
20.05.2022 23:16 13,7 C 12,8 C 10,6 C 83 % 1019,6 hPa 0,0 l/m 0 min 0 min 0 W/m 19,3 km/h (3 Bft) 97,87 %
20.05.2022 23:18 13,7 C 12,8 C 10,0 C 83 % 1019,7 hPa 0,0 l/m 0 min 0 min 0 W/m 12,9 km/h (3 Bft) 97,87 %
20.05.2022 23:20 13,7 C 12,8 C 10,0 C 83 % 1019,7 hPa 0,0 l/m 0 min 0 min 0 W/m 16,1 km/h (3 Bft) 97,87 %
20.05.2022 23:22 13,7 C 12,8 C 10,6 C 83 % 1019,7 hPa 0,0 l/m 0 min 0 min 0 W/m 19,3 km/h (3 Bft) 97,87 %
20.05.2022 23:24 13,7 C 12,8 C 10,6 C 83 % 1019,7 hPa 0,0 l/m 0 min 0 min 0 W/m 6,4 km/h (2 Bft) 95,74 %
20.05.2022 23:26 13,7 C 13,3 C 10,6 C 84 % 1019,7 hPa 0,0 l/m 0 min 0 min 0 W/m 16,1 km/h (3 Bft) 97,83 %
20.05.2022 23:28 13,7 C 12,8 C 10,6 C 84 % 1019,7 hPa 0,0 l/m 0 min 0 min 0 W/m 12,9 km/h (3 Bft) 97,87 %
20.05.2022 23:30 13,7 C 12,8 C 10,6 C 84 % 1019,7 hPa 0,0 l/m 0 min 0 min 0 W/m 9,7 km/h (2 Bft) 97,87 %
20.05.2022 23:33 13,6 C 12,8 C 10,6 C 84 % 1019,7 hPa 0,0 l/m 0 min 0 min 0 W/m 16,1 km/h (3 Bft) 97,14 %
20.05.2022 23:34 13,6 C 12,8 C 10,6 C 84 % 1019,7 hPa 0,0 l/m 0 min 0 min 0 W/m 9,7 km/h (2 Bft) 100,00 %
20.05.2022 23:36 13,6 C 12,8 C 10,0 C 85 % 1019,8 hPa 0,0 l/m 0 min 0 min 0 W/m 9,7 km/h (2 Bft) 97,87 %
20.05.2022 23:38 13,6 C 12,8 C 10,6 C 85 % 1019,9 hPa 0,0 l/m 0 min 0 min 0 W/m 6,4 km/h (2 Bft) 95,65 %
20.05.2022 23:40 13,6 C 12,8 C 10,0 C 85 % 1019,9 hPa 0,0 l/m 0 min 0 min 0 W/m 12,9 km/h (3 Bft) 97,87 %
20.05.2022 23:42 13,6 C 12,8 C 10,0 C 85 % 1019,9 hPa 0,0 l/m 0 min 0 min 0 W/m 16,1 km/h (3 Bft) 95,74 %
20.05.2022 23:44 13,6 C 12,8 C 10,0 C 85 % 1020,0 hPa 0,0 l/m 0 min 0 min 0 W/m 9,7 km/h (2 Bft) 97,87 %
20.05.2022 23:46 13,5 C 12,8 C 10,0 C 85 % 1020,1 hPa 0,0 l/m 0 min 0 min 0 W/m 12,9 km/h (3 Bft) 93,62 %
20.05.2022 23:48 13,5 C 12,8 C 10,0 C 85 % 1020,2 hPa 0,0 l/m 0 min 0 min 0 W/m 6,4 km/h (2 Bft) 97,87 %
20.05.2022 23:50 13,4 C 12,8 C 10,0 C 85 % 1020,3 hPa 0,0 l/m 0 min 0 min 0 W/m 12,9 km/h (3 Bft) 95,65 %
20.05.2022 23:52 13,4 C 12,8 C 10,0 C 85 % 1020,3 hPa 0,0 l/m 0 min 0 min 0 W/m 12,9 km/h (3 Bft) 95,74 %
20.05.2022 23:54 13,4 C 12,8 C 10,0 C 86 % 1020,3 hPa 0,0 l/m 0 min 0 min 0 W/m 12,9 km/h (3 Bft) 95,74 %
20.05.2022 23:56 13,3 C 12,8 C 10,0 C 86 % 1020,3 hPa 0,0 l/m 0 min 0 min 0 W/m 12,9 km/h (3 Bft) 100,00 %
20.05.2022 23:58 13,3 C 12,8 C 10,0 C 86 % 1020,3 hPa 0,0 l/m 0 min 0 min 0 W/m 16,1 km/h (3 Bft) 100,00 %
_ Min-Zeit 23:56 23:14 23:18 13:38 17:00 - - - - 01:36 19:10
Minimum _ 13,3 C 12,8 C 10,0 C 70 % 1013,2 hPa - - - - 0,0 km/h (0 Bft) 78,72 %
_ Max-Zeit 13:50 12:40 13:36 07:10 03:06 14:58 12:07 14:30 12:12 18:07 00:08
Maximum _ 26,3 C 28,3 C 27,8 C 95 % 1022,3 hPa 0,4 l/m 3 min 2 min 994 W/m 54,7 km/h
S-SO (7 Bft)
100,00 %
Durchschnitt _ 18,4 C 18,5 C 14,6 C 86 % 1018,4 hPa #2,6 l/m #6:50 h #1:50 h 280 W/m 10,7 km/h (2 Bft) 97,29 %
© 2022 W. Hausmann